Time,TemperatureF,DewpointF,PressureIn,WindDirection,WindDirectionDegrees,WindSpeedMPH,WindSpeedGustMPH,Humidity,HourlyPrecipIn,Conditions,Clouds,dailyrainin,SoftwareType,DateUTC
2013-07-24 00:00:00,63.1,53.9,29.87,ENE,58,1.0,1.0,72,0.00,,,0.00,Wunderground v.1.15,2013-07-24 06:00:00,
2013-07-24 00:03:00,63.1,53.9,29.87,ENE,58,1.0,1.0,72,0.00,,,0.00,Wunderground v.1.15,2013-07-24 06:03:00,
2013-07-24 00:05:00,63.0,53.8,29.87,ENE,58,1.0,1.0,72,0.00,,,0.00,Wunderground v.1.15,2013-07-24 06:05:00,
2013-07-24 00:06:00,62.9,53.7,29.87,ENE,58,1.0,1.0,72,0.00,,,0.00,Wunderground v.1.15,2013-07-24 06:06:00,
2013-07-24 00:07:00,62.9,53.7,29.87,ENE,58,0.0,1.0,72,0.00,,,0.00,Wunderground v.1.15,2013-07-24 06:07:00,
2013-07-24 00:11:00,62.6,53.8,29.87,NE,56,0.0,0.0,73,0.00,,,0.00,Wunderground v.1.15,2013-07-24 06:11:00,
2013-07-24 00:13:00,62.5,53.7,29.87,ENE,57,0.0,0.0,73,0.00,,,0.00,Wunderground v.1.15,2013-07-24 06:13:00,
2013-07-24 00:16:00,62.5,53.7,29.87,NE,53,0.0,2.0,73,0.00,,,0.00,Wunderground v.1.15,2013-07-24 06:16:00,
2013-07-24 00:17:00,62.5,53.7,29.87,NE,53,0.0,2.0,73,0.00,,,0.00,Wunderground v.1.15,2013-07-24 06:17:00,
2013-07-24 00:18:00,62.5,53.7,29.87,East,96,0.0,2.0,73,0.00,,,0.00,Wunderground v.1.15,2013-07-24 06:18:00,
2013-07-24 00:22:00,62.4,54.0,29.87,ESE,105,0.0,0.0,74,0.00,,,0.00,Wunderground v.1.15,2013-07-24 06:22:00,
2013-07-24 00:25:00,62.3,53.9,29.87,ESE,105,0.0,0.0,74,0.00,,,0.00,Wunderground v.1.15,2013-07-24 06:25:00,
2013-07-24 00:27:00,62.1,53.7,29.87,ESE,105,0.0,0.0,74,0.00,,,0.00,Wunderground v.1.15,2013-07-24 06:27:00,
2013-07-24 00:29:00,62.0,53.6,29.87,ESE,105,0.0,0.0,74,0.00,,,0.00,Wunderground v.1.15,2013-07-24 06:29:00,
2013-07-24 00:32:00,61.9,53.5,29.87,ESE,105,0.0,0.0,74,0.00,,,0.00,Wunderground v.1.15,2013-07-24 06:32:00,
2013-07-24 00:34:00,61.8,53.8,29.87,NW,316,0.0,1.0,75,0.00,,,0.00,Wunderground v.1.15,2013-07-24 06:34:00,
2013-07-24 00:36:00,61.7,53.3,29.87,NW,317,0.0,1.0,74,0.00,,,0.00,Wunderground v.1.15,2013-07-24 06:36:00,
2013-07-24 00:38:00,61.5,53.1,29.87,NW,318,0.0,1.0,74,0.00,,,0.00,Wunderground v.1.15,2013-07-24 06:38:00,
2013-07-24 00:40:00,61.3,53.3,29.87,NW,318,0.0,0.0,75,0.00,,,0.00,Wunderground v.1.15,2013-07-24 06:40:00,
2013-07-24 00:42:00,61.1,53.1,29.87,NW,319,0.0,1.0,75,0.00,,,0.00,Wunderground v.1.15,2013-07-24 06:42:00,
2013-07-24 00:44:00,60.9,52.9,29.87,NW,319,0.0,1.0,75,0.00,,,0.00,Wunderground v.1.15,2013-07-24 06:44:00,
2013-07-24 00:45:00,60.7,53.1,29.87,NW,319,0.0,1.0,76,0.00,,,0.00,Wunderground v.1.15,2013-07-24 06:45:00,
2013-07-24 00:46:00,60.6,53.0,29.87,NW,319,0.0,1.0,76,0.00,,,0.00,Wunderground v.1.15,2013-07-24 06:46:00,
2013-07-24 00:49:00,60.3,53.1,29.86,NW,319,1.0,1.0,77,0.00,,,0.00,Wunderground v.1.15,2013-07-24 06:49:00,
2013-07-24 00:50:00,60.3,53.1,29.86,NW,319,1.0,1.0,77,0.00,,,0.00,Wunderground v.1.15,2013-07-24 06:50:00,
2013-07-24 00:53:00,60.2,53.0,29.87,NW,319,1.0,1.0,77,0.00,,,0.00,Wunderground v.1.15,2013-07-24 06:53:00,
2013-07-24 00:54:00,60.1,52.9,29.87,NW,319,1.0,1.0,77,0.00,,,0.00,Wunderground v.1.15,2013-07-24 06:54:00,
2013-07-24 00:55:00,60.1,52.9,29.87,NNW,348,1.0,1.0,77,0.00,,,0.00,Wunderground v.1.15,2013-07-24 06:55:00,
2013-07-24 00:56:00,60.0,53.1,29.87,North,349,1.0,1.0,78,0.00,,,0.00,Wunderground v.1.15,2013-07-24 06:56:00,
2013-07-24 00:58:00,60.0,53.1,29.86,North,349,1.0,1.0,78,0.00,,,0.00,Wunderground v.1.15,2013-07-24 06:58:00,
2013-07-24 00:59:00,60.0,52.8,29.86,NNW,347,1.0,1.0,77,0.00,,,0.00,Wunderground v.1.15,2013-07-24 06:59:00,
2013-07-24 01:02:00,59.8,52.9,29.86,NW,321,1.0,2.0,78,0.00,,,0.00,Wunderground v.1.15,2013-07-24 07:02:00,
2013-07-24 01:03:00,59.8,52.9,29.86,NW,319,1.0,2.0,78,0.00,,,0.00,Wunderground v.1.15,2013-07-24 07:03:00,
2013-07-24 01:05:00,59.8,52.9,29.86,NW,315,2.0,2.0,78,0.00,,,0.00,Wunderground v.1.15,2013-07-24 07:05:00,
2013-07-24 01:08:00,59.9,53.0,29.86,NW,316,2.0,2.0,78,0.00,,,0.00,Wunderground v.1.15,2013-07-24 07:08:00,
2013-07-24 01:09:00,59.8,52.9,29.86,NW,316,2.0,2.0,78,0.00,,,0.00,Wunderground v.1.15,2013-07-24 07:09:00,
2013-07-24 01:11:00,59.5,52.6,29.85,NW,316,1.0,1.0,78,0.00,,,0.00,Wunderground v.1.15,2013-07-24 07:11:00,
2013-07-24 01:12:00,59.5,52.6,29.86,NW,316,1.0,1.0,78,0.00,,,0.00,Wunderground v.1.15,2013-07-24 07:12:00,
2013-07-24 01:17:00,59.0,52.5,29.85,NW,316,0.0,3.0,79,0.00,,,0.00,Wunderground v.1.15,2013-07-24 07:17:00,
2013-07-24 01:18:00,58.9,52.4,29.85,NW,310,1.0,3.0,79,0.00,,,0.00,Wunderground v.1.15,2013-07-24 07:18:00,
2013-07-24 01:19:00,58.9,52.7,29.85,NW,309,1.0,3.0,80,0.00,,,0.00,Wunderground v.1.15,2013-07-24 07:19:00,
2013-07-24 01:22:00,59.0,52.5,29.85,WNW,302,1.0,2.0,79,0.00,,,0.00,Wunderground v.1.15,2013-07-24 07:22:00,
2013-07-24 01:25:00,58.9,52.4,29.85,SW,222,1.0,2.0,79,0.00,,,0.00,Wunderground v.1.15,2013-07-24 07:25:00,
2013-07-24 01:28:00,58.8,52.6,29.85,SW,222,1.0,2.0,80,0.00,,,0.00,Wunderground v.1.15,2013-07-24 07:28:00,
2013-07-24 01:29:00,58.7,52.5,29.85,SW,222,1.0,2.0,80,0.00,,,0.00,Wunderground v.1.15,2013-07-24 07:29:00,
2013-07-24 01:30:00,58.7,52.5,29.85,WNW,288,1.0,1.0,80,0.00,,,0.00,Wunderground v.1.15,2013-07-24 07:30:00,
2013-07-24 01:32:00,58.7,52.5,29.85,WNW,285,1.0,1.0,80,0.00,,,0.00,Wunderground v.1.15,2013-07-24 07:32:00,
2013-07-24 01:34:00,58.7,52.5,29.85,West,277,1.0,1.0,80,0.00,,,0.00,Wunderground v.1.15,2013-07-24 07:34:00,
2013-07-24 01:37:00,58.5,52.4,29.85,West,281,1.0,2.0,80,0.00,,,0.00,Wunderground v.1.15,2013-07-24 07:37:00,
2013-07-24 01:38:00,58.4,52.3,29.85,West,281,1.0,2.0,80,0.00,,,0.00,Wunderground v.1.15,2013-07-24 07:38:00,
2013-07-24 01:40:00,58.4,52.3,29.85,West,281,1.0,1.0,80,0.00,,,0.00,Wunderground v.1.15,2013-07-24 07:40:00,
2013-07-24 01:43:00,58.3,52.5,29.85,West,275,1.0,1.0,81,0.00,,,0.00,Wunderground v.1.15,2013-07-24 07:43:00,
2013-07-24 01:46:00,58.4,52.3,29.85,West,276,1.0,1.0,80,0.00,,,0.00,Wunderground v.1.15,2013-07-24 07:46:00,
2013-07-24 01:47:00,58.3,52.2,29.85,West,276,1.0,1.0,80,0.00,,,0.00,Wunderground v.1.15,2013-07-24 07:47:00,
2013-07-24 01:48:00,58.2,52.1,29.85,West,277,1.0,1.0,80,0.00,,,0.00,Wunderground v.1.15,2013-07-24 07:48:00,
2013-07-24 01:49:00,58.1,52.0,29.85,West,277,0.0,1.0,80,0.00,,,0.00,Wunderground v.1.15,2013-07-24 07:49:00,
2013-07-24 01:51:00,57.8,51.7,29.85,West,277,0.0,0.0,80,0.00,,,0.00,Wunderground v.1.15,2013-07-24 07:51:00,
2013-07-24 01:54:00,57.4,51.6,29.85,West,277,0.0,0.0,81,0.00,,,0.00,Wunderground v.1.15,2013-07-24 07:54:00,
2013-07-24 01:55:00,57.2,51.4,29.85,West,277,0.0,0.0,81,0.00,,,0.00,Wunderground v.1.15,2013-07-24 07:55:00,
2013-07-24 01:57:00,56.9,51.8,29.85,West,277,0.0,0.0,83,0.00,,,0.00,Wunderground v.1.15,2013-07-24 07:57:00,
2013-07-24 01:58:00,56.8,51.7,29.85,West,277,0.0,0.0,83,0.00,,,0.00,Wunderground v.1.15,2013-07-24 07:58:00,
2013-07-24 02:00:00,56.8,51.4,29.85,West,277,0.0,0.0,82,0.00,,,0.00,Wunderground v.1.15,2013-07-24 08:00:00,
2013-07-24 02:03:00,56.8,51.7,29.85,West,271,0.0,1.0,83,0.00,,,0.00,Wunderground v.1.15,2013-07-24 08:03:00,
2013-07-24 02:04:00,56.8,51.7,29.85,West,271,0.0,1.0,83,0.00,,,0.00,Wunderground v.1.15,2013-07-24 08:04:00,
2013-07-24 02:05:00,56.8,51.7,29.85,West,271,0.0,1.0,83,0.00,,,0.00,Wunderground v.1.15,2013-07-24 08:05:00,
2013-07-24 02:08:00,56.9,51.8,29.84,West,271,0.0,1.0,83,0.00,,,0.00,Wunderground v.1.15,2013-07-24 08:08:00,
2013-07-24 02:09:00,56.9,51.8,29.84,West,271,0.0,1.0,83,0.00,,,0.00,Wunderground v.1.15,2013-07-24 08:09:00,
2013-07-24 02:10:00,56.9,51.8,29.84,West,271,0.0,0.0,83,0.00,,,0.00,Wunderground v.1.15,2013-07-24 08:10:00,
2013-07-24 02:12:00,56.8,51.4,29.84,West,271,0.0,0.0,82,0.00,,,0.00,Wunderground v.1.15,2013-07-24 08:12:00,
2013-07-24 02:14:00,56.7,51.3,29.84,West,271,0.0,0.0,82,0.00,,,0.00,Wunderground v.1.15,2013-07-24 08:14:00,
2013-07-24 02:16:00,56.5,51.4,29.84,West,271,0.0,0.0,83,0.00,,,0.00,Wunderground v.1.15,2013-07-24 08:16:00,
2013-07-24 02:17:00,56.3,51.2,29.84,West,271,0.0,0.0,83,0.00,,,0.00,Wunderground v.1.15,2013-07-24 08:17:00,
2013-07-24 02:19:00,56.0,51.2,29.84,West,271,0.0,0.0,84,0.00,,,0.00,Wunderground v.1.15,2013-07-24 08:19:00,
2013-07-24 02:20:00,55.9,51.1,29.84,West,271,0.0,0.0,84,0.00,,,0.00,Wunderground v.1.15,2013-07-24 08:20:00,
2013-07-24 02:22:00,55.8,51.0,29.84,West,271,0.0,0.0,84,0.00,,,0.00,Wunderground v.1.15,2013-07-24 08:22:00,
2013-07-24 02:23:00,55.7,50.9,29.84,West,271,0.0,0.0,84,0.00,,,0.00,Wunderground v.1.15,2013-07-24 08:23:00,
2013-07-24 02:26:00,55.5,51.1,29.84,West,271,0.0,0.0,85,0.00,,,0.00,Wunderground v.1.15,2013-07-24 08:26:00,
2013-07-24 02:30:00,55.3,50.9,29.84,WSW,252,0.0,0.0,85,0.00,,,0.00,Wunderground v.1.15,2013-07-24 08:30:00,
2013-07-24 02:31:00,55.3,50.9,29.84,WSW,251,0.0,0.0,85,0.00,,,0.00,Wunderground v.1.15,2013-07-24 08:31:00,
2013-07-24 02:32:00,55.3,50.9,29.84,WSW,252,0.0,0.0,85,0.00,,,0.00,Wunderground v.1.15,2013-07-24 08:32:00,
2013-07-24 02:35:00,55.3,50.9,29.84,WSW,252,0.0,0.0,85,0.00,,,0.00,Wunderground v.1.15,2013-07-24 08:35:00,
2013-07-24 02:38:00,55.3,50.9,29.83,WSW,252,0.0,1.0,85,0.00,,,0.00,Wunderground v.1.15,2013-07-24 08:38:00,
2013-07-24 02:40:00,55.4,51.0,29.83,WSW,252,0.0,0.0,85,0.00,,,0.00,Wunderground v.1.15,2013-07-24 08:40:00,
2013-07-24 02:42:00,55.4,51.0,29.83,WSW,252,0.0,0.0,85,0.00,,,0.00,Wunderground v.1.15,2013-07-24 08:42:00,
2013-07-24 02:43:00,55.5,51.1,29.83,WSW,252,0.0,1.0,85,0.00,,,0.00,Wunderground v.1.15,2013-07-24 08:43:00,
2013-07-24 02:46:00,55.7,51.3,29.83,WSW,253,0.0,1.0,85,0.00,,,0.00,Wunderground v.1.15,2013-07-24 08:46:00,
2013-07-24 02:47:00,55.7,50.9,29.83,WSW,253,0.0,1.0,84,0.00,,,0.00,Wunderground v.1.15,2013-07-24 08:47:00,
2013-07-24 02:52:00,55.3,50.5,29.83,WSW,253,0.0,0.0,84,0.00,,,0.00,Wunderground v.1.15,2013-07-24 08:52:00,
2013-07-24 02:53:00,55.2,50.4,29.83,WSW,252,0.0,0.0,84,0.00,,,0.00,Wunderground v.1.15,2013-07-24 08:53:00,
2013-07-24 02:54:00,55.0,50.3,29.83,WSW,253,0.0,0.0,84,0.00,,,0.00,Wunderground v.1.15,2013-07-24 08:54:00,
2013-07-24 02:57:00,54.7,50.3,29.83,WSW,253,0.0,0.0,85,0.00,,,0.00,Wunderground v.1.15,2013-07-24 08:57:00,
2013-07-24 02:58:00,54.6,50.2,29.83,WSW,253,0.0,0.0,85,0.00,,,0.00,Wunderground v.1.15,2013-07-24 08:58:00,
2013-07-24 03:01:00,54.3,50.2,29.83,WSW,253,0.0,0.0,86,0.00,,,0.00,Wunderground v.1.15,2013-07-24 09:01:00,
2013-07-24 03:02:00,54.3,50.2,29.83,WSW,253,0.0,0.0,86,0.00,,,0.00,Wunderground v.1.15,2013-07-24 09:02:00,
2013-07-24 03:05:00,54.0,49.9,29.83,WSW,253,0.0,0.0,86,0.00,,,0.00,Wunderground v.1.15,2013-07-24 09:05:00,
2013-07-24 03:08:00,53.8,50.0,29.83,WSW,253,0.0,0.0,87,0.00,,,0.00,Wunderground v.1.15,2013-07-24 09:08:00,
2013-07-24 03:11:00,53.6,49.8,29.83,WSW,253,0.0,0.0,87,0.00,,,0.00,Wunderground v.1.15,2013-07-24 09:11:00,
2013-07-24 03:13:00,53.6,50.1,29.83,WSW,252,0.0,0.0,88,0.00,,,0.00,Wunderground v.1.15,2013-07-24 09:13:00,
2013-07-24 03:15:00,53.5,50.0,29.83,WSW,252,0.0,1.0,88,0.00,,,0.00,Wunderground v.1.15,2013-07-24 09:15:00,
2013-07-24 03:18:00,53.5,50.0,29.83,WSW,253,0.0,1.0,88,0.00,,,0.00,Wunderground v.1.15,2013-07-24 09:18:00,
2013-07-24 03:19:00,53.5,50.3,29.82,WSW,252,0.0,1.0,89,0.00,,,0.00,Wunderground v.1.15,2013-07-24 09:19:00,
2013-07-24 03:21:00,53.4,49.9,29.83,WSW,253,0.0,0.0,88,0.00,,,0.00,Wunderground v.1.15,2013-07-24 09:21:00,
2013-07-24 03:24:00,53.3,50.1,29.83,WSW,251,0.0,0.0,89,0.00,,,0.00,Wunderground v.1.15,2013-07-24 09:24:00,
2013-07-24 03:25:00,53.3,50.1,29.83,WSW,253,0.0,2.0,89,0.00,,,0.00,Wunderground v.1.15,2013-07-24 09:25:00,
2013-07-24 03:26:00,53.3,50.1,29.83,WSW,253,0.0,2.0,89,0.00,,,0.00,Wunderground v.1.15,2013-07-24 09:26:00,
2013-07-24 03:29:00,53.3,49.8,29.83,West,277,1.0,2.0,88,0.00,,,0.00,Wunderground v.1.15,2013-07-24 09:29:00,
2013-07-24 03:31:00,53.4,49.9,29.82,WNW,284,1.0,2.0,88,0.00,,,0.00,Wunderground v.1.15,2013-07-24 09:31:00,
2013-07-24 03:32:00,53.5,50.0,29.83,WNW,285,1.0,2.0,88,0.00,,,0.00,Wunderground v.1.15,2013-07-24 09:32:00,
2013-07-24 03:34:00,53.8,50.3,29.83,WNW,285,2.0,2.0,88,0.00,,,0.00,Wunderground v.1.15,2013-07-24 09:34:00,
2013-07-24 03:35:00,53.9,50.4,29.82,WNW,287,2.0,2.0,88,0.00,,,0.00,Wunderground v.1.15,2013-07-24 09:35:00,
2013-07-24 03:36:00,53.9,50.1,29.82,WNW,288,2.0,2.0,87,0.00,,,0.00,Wunderground v.1.15,2013-07-24 09:36:00,
2013-07-24 03:39:00,53.7,49.9,29.83,NW,304,2.0,3.0,87,0.00,,,0.00,Wunderground v.1.15,2013-07-24 09:39:00,
2013-07-24 03:42:00,53.2,49.4,29.83,NW,316,2.0,2.0,87,0.00,,,0.00,Wunderground v.1.15,2013-07-24 09:42:00,
2013-07-24 03:44:00,53.0,49.2,29.83,NW,318,1.0,2.0,87,0.00,,,0.00,Wunderground v.1.15,2013-07-24 09:44:00,
2013-07-24 03:46:00,52.8,49.3,29.83,NW,314,1.0,2.0,88,0.00,,,0.00,Wunderground v.1.15,2013-07-24 09:46:00,
2013-07-24 03:48:00,52.6,49.1,29.83,NW,314,1.0,2.0,88,0.00,,,0.00,Wunderground v.1.15,2013-07-24 09:48:00,
2013-07-24 03:50:00,52.5,49.4,29.82,NW,315,0.0,0.0,89,0.00,,,0.00,Wunderground v.1.15,2013-07-24 09:50:00,
2013-07-24 03:52:00,52.4,49.3,29.82,NW,315,0.0,0.0,89,0.00,,,0.00,Wunderground v.1.15,2013-07-24 09:52:00,
2013-07-24 03:53:00,52.4,49.3,29.82,WNW,290,0.0,3.0,89,0.00,,,0.00,Wunderground v.1.15,2013-07-24 09:53:00,
2013-07-24 03:54:00,52.4,49.6,29.82,West,280,1.0,3.0,90,0.00,,,0.00,Wunderground v.1.15,2013-07-24 09:54:00,
2013-07-24 03:55:00,52.6,49.8,29.83,WSW,253,1.0,3.0,90,0.00,,,0.00,Wunderground v.1.15,2013-07-24 09:55:00,
2013-07-24 03:57:00,52.8,49.9,29.83,WSW,255,1.0,3.0,90,0.00,,,0.00,Wunderground v.1.15,2013-07-24 09:57:00,
2013-07-24 03:58:00,52.8,49.9,29.83,WSW,255,1.0,3.0,90,0.00,,,0.00,Wunderground v.1.15,2013-07-24 09:58:00,
2013-07-24 04:00:00,52.9,49.7,29.83,WSW,255,1.0,1.0,89,0.00,,,0.00,Wunderground v.1.15,2013-07-24 10:00:00,
2013-07-24 04:01:00,52.9,49.7,29.83,WSW,255,1.0,1.0,89,0.00,,,0.00,Wunderground v.1.15,2013-07-24 10:01:00,
2013-07-24 04:04:00,52.7,49.2,29.83,WSW,255,1.0,1.0,88,0.00,,,0.00,Wunderground v.1.15,2013-07-24 10:04:00,
2013-07-24 04:06:00,52.6,49.1,29.82,WSW,255,0.0,1.0,88,0.00,,,0.00,Wunderground v.1.15,2013-07-24 10:06:00,
2013-07-24 04:07:00,52.5,49.4,29.82,WSW,255,0.0,1.0,89,0.00,,,0.00,Wunderground v.1.15,2013-07-24 10:07:00,
2013-07-24 04:12:00,52.7,49.8,29.83,WSW,255,0.0,0.0,90,0.00,,,0.00,Wunderground v.1.15,2013-07-24 10:12:00,
2013-07-24 04:13:00,52.7,49.5,29.83,WSW,255,0.0,0.0,89,0.00,,,0.00,Wunderground v.1.15,2013-07-24 10:13:00,
2013-07-24 04:16:00,52.6,49.4,29.83,WSW,255,0.0,0.0,89,0.00,,,0.00,Wunderground v.1.15,2013-07-24 10:16:00,
2013-07-24 04:17:00,52.4,48.9,29.83,WSW,255,0.0,0.0,88,0.00,,,0.00,Wunderground v.1.15,2013-07-24 10:17:00,
2013-07-24 04:20:00,52.2,48.8,29.83,WSW,255,0.0,0.0,88,0.00,,,0.00,Wunderground v.1.15,2013-07-24 10:20:00,
2013-07-24 04:22:00,52.1,49.0,29.83,WSW,255,0.0,0.0,89,0.00,,,0.00,Wunderground v.1.15,2013-07-24 10:22:00,
2013-07-24 04:25:00,52.0,48.9,29.83,ESE,118,0.0,1.0,89,0.00,,,0.00,Wunderground v.1.15,2013-07-24 10:25:00,
2013-07-24 04:26:00,52.0,48.9,29.83,ESE,119,0.0,1.0,89,0.00,,,0.00,Wunderground v.1.15,2013-07-24 10:26:00,
2013-07-24 04:27:00,51.9,48.8,29.83,ESE,118,0.0,1.0,89,0.00,,,0.00,Wunderground v.1.15,2013-07-24 10:27:00,
2013-07-24 04:30:00,51.8,49.0,29.83,ESE,119,0.0,0.0,90,0.00,,,0.00,Wunderground v.1.15,2013-07-24 10:30:00,
2013-07-24 04:31:00,51.8,49.0,29.83,ESE,118,0.0,0.0,90,0.00,,,0.00,Wunderground v.1.15,2013-07-24 10:31:00,
2013-07-24 04:35:00,51.6,48.8,29.83,ESE,119,0.0,0.0,90,0.00,,,0.00,Wunderground v.1.15,2013-07-24 10:35:00,
2013-07-24 04:36:00,51.6,48.8,29.83,ESE,118,0.0,0.0,90,0.00,,,0.00,Wunderground v.1.15,2013-07-24 10:36:00,
2013-07-24 04:37:00,51.6,48.8,29.83,ESE,121,0.0,1.0,90,0.00,,,0.00,Wunderground v.1.15,2013-07-24 10:37:00,
2013-07-24 04:38:00,51.6,48.8,29.83,ESE,121,0.0,1.0,90,0.00,,,0.00,Wunderground v.1.15,2013-07-24 10:38:00,
2013-07-24 04:41:00,51.6,48.8,29.83,ESE,122,0.0,0.0,90,0.00,,,0.00,Wunderground v.1.15,2013-07-24 10:41:00,
2013-07-24 04:43:00,51.5,48.7,29.83,ESE,121,0.0,0.0,90,0.00,,,0.00,Wunderground v.1.15,2013-07-24 10:43:00,
2013-07-24 04:44:00,51.5,48.7,29.83,ESE,122,0.0,0.0,90,0.00,,,0.00,Wunderground v.1.15,2013-07-24 10:44:00,
2013-07-24 04:45:00,51.4,48.6,29.83,SE,145,0.0,0.0,90,0.00,,,0.00,Wunderground v.1.15,2013-07-24 10:45:00,
2013-07-24 04:48:00,51.4,48.6,29.83,SSW,212,0.0,3.0,90,0.00,,,0.00,Wunderground v.1.15,2013-07-24 10:48:00,
2013-07-24 04:50:00,51.6,48.8,29.83,WSW,246,1.0,1.0,90,0.00,,,0.00,Wunderground v.1.15,2013-07-24 10:50:00,
2013-07-24 04:54:00,51.5,48.4,29.83,West,281,1.0,2.0,89,0.00,,,0.00,Wunderground v.1.15,2013-07-24 10:54:00,
2013-07-24 04:55:00,51.4,48.3,29.83,WNW,285,1.0,2.0,89,0.00,,,0.00,Wunderground v.1.15,2013-07-24 10:55:00,
2013-07-24 04:56:00,51.4,48.3,29.83,WNW,285,1.0,2.0,89,0.00,,,0.00,Wunderground v.1.15,2013-07-24 10:56:00,
2013-07-24 04:57:00,51.4,48.3,29.83,WNW,285,1.0,2.0,89,0.00,,,0.00,Wunderground v.1.15,2013-07-24 10:57:00,
2013-07-24 04:59:00,51.2,48.1,29.83,WNW,285,1.0,2.0,89,0.00,,,0.00,Wunderground v.1.15,2013-07-24 10:59:00,
2013-07-24 05:00:00,51.2,48.1,29.83,WNW,285,1.0,2.0,89,0.00,,,0.00,Wunderground v.1.15,2013-07-24 11:00:00,
2013-07-24 05:03:00,51.1,48.3,29.83,West,269,1.0,2.0,90,0.00,,,0.00,Wunderground v.1.15,2013-07-24 11:03:00,
2013-07-24 05:04:00,51.2,48.4,29.83,WSW,251,1.0,2.0,90,0.00,,,0.00,Wunderground v.1.15,2013-07-24 11:04:00,
2013-07-24 05:06:00,51.3,48.5,29.83,WSW,252,1.0,2.0,90,0.00,,,0.00,Wunderground v.1.15,2013-07-24 11:06:00,
2013-07-24 05:09:00,51.4,48.6,29.83,WSW,251,1.0,2.0,90,0.00,,,0.00,Wunderground v.1.15,2013-07-24 11:09:00,
2013-07-24 05:11:00,51.3,48.2,29.83,WSW,252,0.0,0.0,89,0.00,,,0.00,Wunderground v.1.15,2013-07-24 11:11:00,
2013-07-24 05:12:00,51.2,48.1,29.83,WSW,252,0.0,0.0,89,0.00,,,0.00,Wunderground v.1.15,2013-07-24 11:12:00,
2013-07-24 05:14:00,51.1,48.3,29.83,WSW,252,0.0,0.0,90,0.00,,,0.00,Wunderground v.1.15,2013-07-24 11:14:00,
2013-07-24 05:18:00,50.8,48.0,29.83,WSW,252,0.0,0.0,90,0.00,,,0.00,Wunderground v.1.15,2013-07-24 11:18:00,
2013-07-24 05:19:00,50.8,48.0,29.83,WSW,252,0.0,1.0,90,0.00,,,0.00,Wunderground v.1.15,2013-07-24 11:19:00,
2013-07-24 05:21:00,50.8,48.0,29.83,WSW,255,0.0,1.0,90,0.00,,,0.00,Wunderground v.1.15,2013-07-24 11:21:00,
2013-07-24 05:23:00,50.9,48.1,29.83,WSW,255,0.0,1.0,90,0.00,,,0.00,Wunderground v.1.15,2013-07-24 11:23:00,
2013-07-24 05:24:00,51.0,48.2,29.83,WSW,255,0.0,1.0,90,0.00,,,0.00,Wunderground v.1.15,2013-07-24 11:24:00,
2013-07-24 05:25:00,50.9,48.1,29.83,WSW,255,0.0,1.0,90,0.00,,,0.00,Wunderground v.1.15,2013-07-24 11:25:00,
2013-07-24 05:28:00,50.9,48.1,29.83,WSW,255,0.0,1.0,90,0.00,,,0.00,Wunderground v.1.15,2013-07-24 11:28:00,
2013-07-24 05:30:00,50.8,48.0,29.83,WSW,256,0.0,0.0,90,0.00,,,0.00,Wunderground v.1.15,2013-07-24 11:30:00,
2013-07-24 05:31:00,50.8,47.7,29.83,WSW,255,0.0,0.0,89,0.00,,,0.00,Wunderground v.1.15,2013-07-24 11:31:00,
2013-07-24 05:32:00,50.8,47.7,29.83,WSW,256,0.0,0.0,89,0.00,,,0.00,Wunderground v.1.15,2013-07-24 11:32:00,
2013-07-24 05:34:00,50.6,47.5,29.84,WSW,256,0.0,1.0,89,0.00,,,0.00,Wunderground v.1.15,2013-07-24 11:34:00,
2013-07-24 05:35:00,50.6,47.8,29.84,SSE,158,0.0,2.0,90,0.00,,,0.00,Wunderground v.1.15,2013-07-24 11:35:00,
2013-07-24 05:38:00,50.6,47.8,29.84,SSE,166,0.0,2.0,90,0.00,,,0.00,Wunderground v.1.15,2013-07-24 11:38:00,
2013-07-24 05:40:00,50.6,47.8,29.84,SSE,166,0.0,0.0,90,0.00,,,0.00,Wunderground v.1.15,2013-07-24 11:40:00,
2013-07-24 05:41:00,50.7,47.9,29.84,SSE,165,0.0,0.0,90,0.00,,,0.00,Wunderground v.1.15,2013-07-24 11:41:00,
2013-07-24 05:42:00,50.7,48.2,29.84,SSW,211,0.0,1.0,91,0.00,,,0.00,Wunderground v.1.15,2013-07-24 11:42:00,
2013-07-24 05:45:00,51.0,48.2,29.84,SSW,211,0.0,1.0,90,0.00,,,0.00,Wunderground v.1.15,2013-07-24 11:45:00,
2013-07-24 05:46:00,51.0,48.2,29.84,SSW,211,0.0,1.0,90,0.00,,,0.00,Wunderground v.1.15,2013-07-24 11:46:00,
2013-07-24 05:49:00,51.0,48.2,29.84,SSW,211,0.0,1.0,90,0.00,,,0.00,Wunderground v.1.15,2013-07-24 11:49:00,
2013-07-24 05:51:00,51.0,48.2,29.84,SSW,211,0.0,0.0,90,0.00,,,0.00,Wunderground v.1.15,2013-07-24 11:51:00,
2013-07-24 05:52:00,51.0,48.2,29.84,SSW,211,0.0,0.0,90,0.00,,,0.00,Wunderground v.1.15,2013-07-24 11:52:00,
2013-07-24 05:53:00,51.0,48.2,29.84,SSW,211,0.0,0.0,90,0.00,,,0.00,Wunderground v.1.15,2013-07-24 11:53:00,
2013-07-24 05:55:00,50.9,48.1,29.84,SSW,211,0.0,0.0,90,0.00,,,0.00,Wunderground v.1.15,2013-07-24 11:55:00,
2013-07-24 05:56:00,50.9,48.1,29.84,SSW,211,0.0,0.0,90,0.00,,,0.00,Wunderground v.1.15,2013-07-24 11:56:00,
2013-07-24 05:59:00,51.0,48.2,29.84,WSW,249,0.0,2.0,90,0.00,,,0.00,Wunderground v.1.15,2013-07-24 11:59:00,
2013-07-24 06:00:00,51.0,48.2,29.83,WSW,249,0.0,2.0,90,0.00,,,0.00,Wunderground v.1.15,2013-07-24 12:00:00,
2013-07-24 06:01:00,51.0,48.2,29.83,WSW,249,1.0,2.0,90,0.00,,,0.00,Wunderground v.1.15,2013-07-24 12:01:00,
2013-07-24 06:02:00,51.0,47.9,29.84,West,281,1.0,2.0,89,0.00,,,0.00,Wunderground v.1.15,2013-07-24 12:02:00,
2013-07-24 06:04:00,50.9,47.8,29.83,West,281,1.0,2.0,89,0.00,,,0.00,Wunderground v.1.15,2013-07-24 12:04:00,
2013-07-24 06:09:00,50.7,47.6,29.84,West,281,1.0,2.0,89,0.00,,,0.00,Wunderground v.1.15,2013-07-24 12:09:00,
2013-07-24 06:10:00,50.7,47.6,29.84,West,281,1.0,1.0,89,0.00,,,0.00,Wunderground v.1.15,2013-07-24 12:10:00,
2013-07-24 06:12:00,50.6,47.5,29.84,West,281,0.0,1.0,89,0.00,,,0.00,Wunderground v.1.15,2013-07-24 12:12:00,
2013-07-24 06:13:00,50.6,47.5,29.84,West,281,0.0,1.0,89,0.00,,,0.00,Wunderground v.1.15,2013-07-24 12:13:00,
2013-07-24 06:16:00,50.6,47.5,29.84,WNW,282,0.0,1.0,89,0.00,,,0.00,Wunderground v.1.15,2013-07-24 12:16:00,
2013-07-24 06:17:00,50.6,47.8,29.84,West,281,0.0,1.0,90,0.00,,,0.00,Wunderground v.1.15,2013-07-24 12:17:00,
2013-07-24 06:20:00,51.0,48.2,29.84,West,263,0.0,0.0,90,0.00,,,0.00,Wunderground v.1.15,2013-07-24 12:20:00,
2013-07-24 06:23:00,51.5,48.4,29.83,West,269,0.0,0.0,89,0.00,,,0.00,Wunderground v.1.15,2013-07-24 12:23:00,
2013-07-24 06:25:00,51.8,48.4,29.83,West,269,0.0,0.0,88,0.00,,,0.00,Wunderground v.1.15,2013-07-24 12:25:00,
2013-07-24 06:26:00,52.2,48.4,29.83,West,269,0.0,0.0,87,0.00,,,0.00,Wunderground v.1.15,2013-07-24 12:26:00,
2013-07-24 06:28:00,52.6,48.8,29.83,SE,127,0.0,1.0,87,0.00,,,0.00,Wunderground v.1.15,2013-07-24 12:28:00,
2013-07-24 06:33:00,53.4,49.0,29.83,South,191,0.0,2.0,85,0.00,,,0.00,Wunderground v.1.15,2013-07-24 12:33:00,
2013-07-24 06:34:00,53.5,49.1,29.83,South,176,1.0,2.0,85,0.00,,,0.00,Wunderground v.1.15,2013-07-24 12:34:00,
2013-07-24 06:35:00,53.7,49.0,29.83,South,176,1.0,2.0,84,0.00,,,0.00,Wunderground v.1.15,2013-07-24 12:35:00,
2013-07-24 06:36:00,53.8,49.1,29.83,SW,223,1.0,2.0,84,0.00,,,0.00,Wunderground v.1.15,2013-07-24 12:36:00,
2013-07-24 06:38:00,53.9,49.2,29.83,SW,228,1.0,2.0,84,0.00,,,0.00,Wunderground v.1.15,2013-07-24 12:38:00,
2013-07-24 06:40:00,53.9,49.2,29.83,SSW,203,2.0,2.0,84,0.00,,,0.00,Wunderground v.1.15,2013-07-24 12:40:00,
2013-07-24 06:43:00,53.9,49.5,29.83,ESE,118,1.0,2.0,85,0.00,,,0.00,Wunderground v.1.15,2013-07-24 12:43:00,
2013-07-24 06:45:00,53.9,49.5,29.83,ESE,118,1.0,2.0,85,0.00,,,0.00,Wunderground v.1.15,2013-07-24 12:45:00,
2013-07-24 06:46:00,53.9,49.5,29.83,ESE,119,1.0,2.0,85,0.00,,,0.00,Wunderground v.1.15,2013-07-24 12:46:00,
2013-07-24 06:52:00,53.9,49.2,29.83,SSW,210,0.0,0.0,84,0.00,,,0.00,Wunderground v.1.15,2013-07-24 12:52:00,
2013-07-24 06:53:00,53.9,49.5,29.83,SSW,209,0.0,0.0,85,0.00,,,0.00,Wunderground v.1.15,2013-07-24 12:53:00,
2013-07-24 06:55:00,54.0,49.6,29.83,West,270,0.0,2.0,85,0.00,,,0.00,Wunderground v.1.15,2013-07-24 12:55:00,
2013-07-24 06:57:00,54.0,49.3,29.83,West,273,1.0,2.0,84,0.00,,,0.00,Wunderground v.1.15,2013-07-24 12:57:00,
2013-07-24 06:58:00,54.0,49.3,29.83,West,273,1.0,2.0,84,0.00,,,0.00,Wunderground v.1.15,2013-07-24 12:58:00,
2013-07-24 07:01:00,54.1,49.4,29.82,West,273,1.0,1.0,84,0.00,,,0.00,Wunderground v.1.15,2013-07-24 13:01:00,
2013-07-24 07:04:00,54.3,49.6,29.82,West,272,1.0,1.0,84,0.00,,,0.00,Wunderground v.1.15,2013-07-24 13:04:00,
2013-07-24 07:08:00,54.6,49.9,29.82,West,273,0.0,1.0,84,0.00,,,0.00,Wunderground v.1.15,2013-07-24 13:08:00,
2013-07-24 07:10:00,54.7,49.6,29.83,West,273,0.0,0.0,83,0.00,,,0.00,Wunderground v.1.15,2013-07-24 13:10:00,
2013-07-24 07:12:00,54.8,49.7,29.83,West,273,0.0,1.0,83,0.00,,,0.00,Wunderground v.1.15,2013-07-24 13:12:00,
2013-07-24 07:17:00,55.1,49.7,29.83,West,273,0.0,1.0,82,0.00,,,0.00,Wunderground v.1.15,2013-07-24 13:17:00,
2013-07-24 07:18:00,55.1,49.7,29.83,West,273,0.0,1.0,82,0.00,,,0.00,Wunderground v.1.15,2013-07-24 13:18:00,
2013-07-24 07:19:00,55.1,49.7,29.83,West,272,0.0,1.0,82,0.00,,,0.00,Wunderground v.1.15,2013-07-24 13:19:00,
2013-07-24 07:21:00,55.2,49.8,29.83,West,273,0.0,0.0,82,0.00,,,0.00,Wunderground v.1.15,2013-07-24 13:21:00,
2013-07-24 07:24:00,55.4,49.7,29.83,West,273,0.0,0.0,81,0.00,,,0.00,Wunderground v.1.15,2013-07-24 13:24:00,
2013-07-24 07:28:00,55.8,50.4,29.83,West,273,0.0,0.0,82,0.00,,,0.00,Wunderground v.1.15,2013-07-24 13:28:00,
2013-07-24 07:30:00,56.0,50.3,29.82,West,273,0.0,0.0,81,0.00,,,0.00,Wunderground v.1.15,2013-07-24 13:30:00,
2013-07-24 07:32:00,56.2,50.4,29.82,West,273,0.0,0.0,81,0.00,,,0.00,Wunderground v.1.15,2013-07-24 13:32:00,
2013-07-24 07:33:00,56.3,50.5,29.82,West,273,0.0,0.0,81,0.00,,,0.00,Wunderground v.1.15,2013-07-24 13:33:00,
2013-07-24 07:34:00,56.7,50.6,29.83,ESE,121,0.0,1.0,80,0.00,,,0.00,Wunderground v.1.15,2013-07-24 13:34:00,
2013-07-24 07:36:00,57.0,50.2,29.83,SSW,203,0.0,1.0,78,0.00,,,0.00,Wunderground v.1.15,2013-07-24 13:36:00,
2013-07-24 07:37:00,57.0,50.2,29.83,SSW,208,0.0,1.0,78,0.00,,,0.00,Wunderground v.1.15,2013-07-24 13:37:00,
2013-07-24 07:39:00,57.1,50.3,29.83,SSE,158,0.0,1.0,78,0.00,,,0.00,Wunderground v.1.15,2013-07-24 13:39:00,
2013-07-24 07:43:00,57.4,50.9,29.83,ESE,122,1.0,1.0,79,0.00,,,0.00,Wunderground v.1.15,2013-07-24 13:43:00,
2013-07-24 07:44:00,57.4,50.9,29.83,ESE,122,1.0,1.0,79,0.00,,,0.00,Wunderground v.1.15,2013-07-24 13:44:00,
2013-07-24 07:45:00,57.5,51.0,29.83,ESE,122,1.0,1.0,79,0.00,,,0.00,Wunderground v.1.15,2013-07-24 13:45:00,
2013-07-24 07:47:00,57.7,50.9,29.83,ESE,121,0.0,1.0,78,0.00,,,0.00,Wunderground v.1.15,2013-07-24 13:47:00,
2013-07-24 07:49:00,58.0,50.8,29.83,ESE,122,0.0,1.0,77,0.00,,,0.00,Wunderground v.1.15,2013-07-24 13:49:00,
2013-07-24 07:52:00,58.2,51.0,29.83,ESE,121,0.0,0.0,77,0.00,,,0.00,Wunderground v.1.15,2013-07-24 13:52:00,
2013-07-24 07:53:00,58.3,50.8,29.83,ESE,121,0.0,0.0,76,0.00,,,0.00,Wunderground v.1.15,2013-07-24 13:53:00,
2013-07-24 07:55:00,58.5,51.0,29.83,ESE,121,0.0,0.0,76,0.00,,,0.00,Wunderground v.1.15,2013-07-24 13:55:00,
2013-07-24 07:56:00,58.6,51.1,29.83,ESE,121,0.0,0.0,76,0.00,,,0.00,Wunderground v.1.15,2013-07-24 13:56:00,
2013-07-24 07:58:00,59.0,51.1,29.83,ESE,122,0.0,0.0,75,0.00,,,0.00,Wunderground v.1.15,2013-07-24 13:58:00,
2013-07-24 08:00:00,59.5,50.8,29.83,ESE,122,0.0,0.0,73,0.00,,,0.00,Wunderground v.1.15,2013-07-24 14:00:00,
2013-07-24 08:02:00,59.8,50.8,29.83,ESE,121,0.0,0.0,72,0.00,,,0.00,Wunderground v.1.15,2013-07-24 14:02:00,
2013-07-24 08:04:00,60.0,51.3,29.83,ESE,121,0.0,0.0,73,0.00,,,0.00,Wunderground v.1.15,2013-07-24 14:04:00,
2013-07-24 08:08:00,60.8,51.3,29.83,SE,139,0.0,1.0,71,0.00,,,0.00,Wunderground v.1.15,2013-07-24 14:08:00,
2013-07-24 08:09:00,60.9,51.0,29.82,SSE,153,0.0,1.0,70,0.00,,,0.00,Wunderground v.1.15,2013-07-24 14:09:00,
2013-07-24 08:10:00,61.0,51.1,29.82,SE,133,0.0,1.0,70,0.00,,,0.00,Wunderground v.1.15,2013-07-24 14:10:00,
2013-07-24 08:11:00,61.1,51.2,29.83,SE,131,0.0,1.0,70,0.00,,,0.00,Wunderground v.1.15,2013-07-24 14:11:00,
2013-07-24 08:15:00,61.6,51.7,29.82,SE,131,0.0,1.0,70,0.00,,,0.00,Wunderground v.1.15,2013-07-24 14:15:00,
2013-07-24 08:16:00,61.7,51.8,29.82,SE,132,0.0,1.0,70,0.00,,,0.00,Wunderground v.1.15,2013-07-24 14:16:00,
2013-07-24 08:19:00,62.2,52.3,29.82,SE,132,0.0,1.0,70,0.00,,,0.00,Wunderground v.1.15,2013-07-24 14:19:00,
2013-07-24 08:20:00,62.5,52.2,29.82,SE,132,0.0,0.0,69,0.00,,,0.00,Wunderground v.1.15,2013-07-24 14:20:00,
2013-07-24 08:24:00,63.0,51.9,29.82,SE,140,0.0,0.0,67,0.00,,,0.00,Wunderground v.1.15,2013-07-24 14:24:00,
2013-07-24 08:26:00,63.2,52.1,29.82,SE,139,0.0,0.0,67,0.00,,,0.00,Wunderground v.1.15,2013-07-24 14:26:00,
2013-07-24 08:27:00,63.3,52.6,29.82,SE,140,0.0,0.0,68,0.00,,,0.00,Wunderground v.1.15,2013-07-24 14:27:00,
2013-07-24 08:30:00,63.1,52.0,29.82,WSW,240,0.0,0.0,67,0.00,,,0.00,Wunderground v.1.15,2013-07-24 14:30:00,
2013-07-24 08:32:00,62.8,51.3,29.82,WSW,240,0.0,0.0,66,0.00,,,0.00,Wunderground v.1.15,2013-07-24 14:32:00,
2013-07-24 08:33:00,62.8,51.7,29.81,WSW,240,0.0,0.0,67,0.00,,,0.00,Wunderground v.1.15,2013-07-24 14:33:00,
2013-07-24 08:34:00,62.7,51.6,29.82,WSW,240,0.0,0.0,67,0.00,,,0.00,Wunderground v.1.15,2013-07-24 14:34:00,
2013-07-24 08:40:00,63.2,51.6,29.81,SW,222,0.0,0.0,66,0.00,,,0.00,Wunderground v.1.15,2013-07-24 14:40:00,
2013-07-24 08:42:00,63.3,51.7,29.81,SW,222,0.0,0.0,66,0.00,,,0.00,Wunderground v.1.15,2013-07-24 14:42:00,
2013-07-24 08:43:00,63.3,52.6,29.81,SW,236,0.0,0.0,68,0.00,,,0.00,Wunderground v.1.15,2013-07-24 14:43:00,
2013-07-24 08:49:00,64.0,52.4,29.81,SW,236,0.0,0.0,66,0.00,,,0.00,Wunderground v.1.15,2013-07-24 14:49:00,
2013-07-24 08:50:00,64.2,52.6,29.81,SW,235,0.0,0.0,66,0.00,,,0.00,Wunderground v.1.15,2013-07-24 14:50:00,
2013-07-24 08:51:00,64.4,52.4,29.81,East,90,0.0,2.0,65,0.00,,,0.00,Wunderground v.1.15,2013-07-24 14:51:00,
2013-07-24 08:54:00,64.8,52.3,29.81,East,92,0.0,2.0,64,0.00,,,0.00,Wunderground v.1.15,2013-07-24 14:54:00,
2013-07-24 08:59:00,65.2,52.3,29.81,East,98,1.0,2.0,63,0.00,,,0.00,Wunderground v.1.15,2013-07-24 14:59:00,
2013-07-24 09:00:00,65.4,52.9,29.81,SE,133,1.0,1.0,64,0.00,,,0.00,Wunderground v.1.15,2013-07-24 15:00:00,
2013-07-24 09:03:00,66.1,53.1,29.81,East,101,1.0,1.0,63,0.00,,,0.00,Wunderground v.1.15,2013-07-24 15:03:00,
2013-07-24 09:05:00,66.4,53.0,29.81,East,98,1.0,2.0,62,0.00,,,0.00,Wunderground v.1.15,2013-07-24 15:05:00,
2013-07-24 09:06:00,66.6,53.6,29.81,East,98,1.0,2.0,63,0.00,,,0.00,Wunderground v.1.15,2013-07-24 15:06:00,
2013-07-24 09:07:00,66.8,53.8,29.81,East,97,1.0,2.0,63,0.00,,,0.00,Wunderground v.1.15,2013-07-24 15:07:00,
2013-07-24 09:09:00,67.4,53.5,29.80,East,98,1.0,1.0,61,0.00,,,0.00,Wunderground v.1.15,2013-07-24 15:09:00,
2013-07-24 09:13:00,67.8,53.9,29.80,East,96,1.0,2.0,61,0.00,,,0.00,Wunderground v.1.15,2013-07-24 15:13:00,
2013-07-24 09:14:00,67.8,53.9,29.80,ESE,109,1.0,2.0,61,0.00,,,0.00,Wunderground v.1.15,2013-07-24 15:14:00,
2013-07-24 09:16:00,67.9,53.5,29.80,SE,143,1.0,2.0,60,0.00,,,0.00,Wunderground v.1.15,2013-07-24 15:16:00,
2013-07-24 09:20:00,68.2,53.8,29.80,ESE,103,1.0,2.0,60,0.00,,,0.00,Wunderground v.1.15,2013-07-24 15:20:00,
2013-07-24 09:22:00,68.3,53.4,29.80,East,84,1.0,2.0,59,0.00,,,0.00,Wunderground v.1.15,2013-07-24 15:22:00,
2013-07-24 09:23:00,68.4,54.0,29.80,SE,132,1.0,2.0,60,0.00,,,0.00,Wunderground v.1.15,2013-07-24 15:23:00,
2013-07-24 09:24:00,68.4,54.0,29.79,East,86,1.0,2.0,60,0.00,,,0.00,Wunderground v.1.15,2013-07-24 15:24:00,
2013-07-24 09:28:00,69.0,54.1,29.79,East,96,1.0,2.0,59,0.00,,,0.00,Wunderground v.1.15,2013-07-24 15:28:00,
2013-07-24 09:29:00,69.3,54.4,29.79,ESE,108,1.0,2.0,59,0.00,,,0.00,Wunderground v.1.15,2013-07-24 15:29:00,
2013-07-24 09:34:00,70.1,54.2,29.79,East,84,1.0,2.0,57,0.00,,,0.00,Wunderground v.1.15,2013-07-24 15:34:00,
2013-07-24 09:35:00,70.2,54.2,29.79,East,82,1.0,2.0,57,0.00,,,0.00,Wunderground v.1.15,2013-07-24 15:35:00,
2013-07-24 09:36:00,70.2,54.2,29.79,East,84,1.0,2.0,57,0.00,,,0.00,Wunderground v.1.15,2013-07-24 15:36:00,
2013-07-24 09:37:00,70.3,54.3,29.79,East,84,1.0,2.0,57,0.00,,,0.00,Wunderground v.1.15,2013-07-24 15:37:00,
2013-07-24 09:42:00,70.8,54.3,29.79,SW,229,1.0,1.0,56,0.00,,,0.00,Wunderground v.1.15,2013-07-24 15:42:00,
2013-07-24 09:44:00,70.9,54.9,29.79,East,89,1.0,2.0,57,0.00,,,0.00,Wunderground v.1.15,2013-07-24 15:44:00,
2013-07-24 09:45:00,71.1,55.1,29.79,ESE,108,1.0,2.0,57,0.00,,,0.00,Wunderground v.1.15,2013-07-24 15:45:00,
2013-07-24 09:48:00,71.7,55.2,29.79,East,83,1.0,4.0,56,0.00,,,0.00,Wunderground v.1.15,2013-07-24 15:48:00,
2013-07-24 09:50:00,71.8,54.8,29.79,East,91,2.0,2.0,55,0.00,,,0.00,Wunderground v.1.15,2013-07-24 15:50:00,
2013-07-24 09:51:00,72.0,55.4,29.79,East,98,2.0,2.0,56,0.00,,,0.00,Wunderground v.1.15,2013-07-24 15:51:00,
2013-07-24 09:55:00,72.8,55.2,29.78,East,92,2.0,3.0,54,0.00,,,0.00,Wunderground v.1.15,2013-07-24 15:55:00,
2013-07-24 09:57:00,72.8,54.7,29.78,ENE,64,2.0,3.0,53,0.00,,,0.00,Wunderground v.1.15,2013-07-24 15:57:00,
2013-07-24 09:59:00,72.8,54.7,29.78,East,87,2.0,3.0,53,0.00,,,0.00,Wunderground v.1.15,2013-07-24 15:59:00,
2013-07-24 10:00:00,72.8,54.7,29.78,ENE,71,2.0,3.0,53,0.00,,,0.00,Wunderground v.1.15,2013-07-24 16:00:00,
2013-07-24 10:01:00,72.8,54.7,29.78,NE,36,3.0,4.0,53,0.00,,,0.00,Wunderground v.1.15,2013-07-24 16:01:00,
2013-07-24 10:06:00,72.8,55.2,29.78,ENE,77,4.0,5.0,54,0.00,,,0.00,Wunderground v.1.15,2013-07-24 16:06:00,
2013-07-24 10:08:00,72.8,55.7,29.78,East,79,4.0,5.0,55,0.00,,,0.00,Wunderground v.1.15,2013-07-24 16:08:00,
2013-07-24 10:11:00,73.4,56.2,29.78,ENE,75,4.0,8.0,55,0.00,,,0.00,Wunderground v.1.15,2013-07-24 16:11:00,
2013-07-24 10:12:00,73.5,56.3,29.78,East,87,4.0,8.0,55,0.00,,,0.00,Wunderground v.1.15,2013-07-24 16:12:00,
2013-07-24 10:17:00,72.9,55.8,29.78,ENE,67,5.0,8.0,55,0.00,,,0.00,Wunderground v.1.15,2013-07-24 16:17:00,
2013-07-24 10:18:00,72.9,55.8,29.78,NE,46,5.0,8.0,55,0.00,,,0.00,Wunderground v.1.15,2013-07-24 16:18:00,
2013-07-24 10:20:00,72.9,55.8,29.78,ENE,61,5.0,9.0,55,0.00,,,0.00,Wunderground v.1.15,2013-07-24 16:20:00,
2013-07-24 10:21:00,72.7,55.6,29.78,NNE,19,5.0,9.0,55,0.00,,,0.00,Wunderground v.1.15,2013-07-24 16:21:00,
2013-07-24 10:24:00,73.0,57.3,29.78,ENE,62,5.0,9.0,58,0.00,,,0.00,Wunderground v.1.15,2013-07-24 16:24:00,
2013-07-24 10:27:00,73.6,56.9,29.78,East,96,5.0,9.0,56,0.00,,,0.00,Wunderground v.1.15,2013-07-24 16:27:00,
2013-07-24 10:28:00,73.7,57.0,29.79,ENE,77,4.0,9.0,56,0.00,,,0.00,Wunderground v.1.15,2013-07-24 16:28:00,
2013-07-24 10:30:00,73.8,56.6,29.78,NE,55,4.0,7.0,55,0.00,,,0.00,Wunderground v.1.15,2013-07-24 16:30:00,
2013-07-24 10:31:00,73.8,57.1,29.78,East,98,4.0,7.0,56,0.00,,,0.00,Wunderground v.1.15,2013-07-24 16:31:00,
2013-07-24 10:33:00,74.0,56.8,29.79,ENE,58,4.0,7.0,55,0.00,,,0.00,Wunderground v.1.15,2013-07-24 16:33:00,
2013-07-24 10:37:00,73.6,56.4,29.79,East,81,4.0,9.0,55,0.00,,,0.00,Wunderground v.1.15,2013-07-24 16:37:00,
2013-07-24 10:38:00,73.7,56.5,29.79,ESE,108,4.0,9.0,55,0.00,,,0.00,Wunderground v.1.15,2013-07-24 16:38:00,
2013-07-24 10:39:00,73.7,57.0,29.79,SE,129,4.0,4.0,56,0.00,,,0.00,Wunderground v.1.15,2013-07-24 16:39:00,
2013-07-24 10:40:00,73.9,56.7,29.79,East,87,4.0,4.0,55,0.00,,,0.00,Wunderground v.1.15,2013-07-24 16:40:00,
2013-07-24 10:45:00,74.4,56.2,29.79,East,87,4.0,7.0,53,0.00,,,0.00,Wunderground v.1.15,2013-07-24 16:45:00,
2013-07-24 10:46:00,74.5,56.8,29.79,ESE,111,4.0,7.0,54,0.00,,,0.00,Wunderground v.1.15,2013-07-24 16:46:00,
2013-07-24 10:47:00,74.4,55.6,29.79,East,96,4.0,7.0,52,0.00,,,0.00,Wunderground v.1.15,2013-07-24 16:47:00,
2013-07-24 10:50:00,74.3,55.5,29.79,ESE,108,4.0,7.0,52,0.00,,,0.00,Wunderground v.1.15,2013-07-24 16:50:00,
2013-07-24 10:52:00,74.0,55.3,29.79,ESE,114,5.0,7.0,52,0.00,,,0.00,Wunderground v.1.15,2013-07-24 16:52:00,
2013-07-24 10:54:00,74.3,56.1,29.79,ENE,73,5.0,7.0,53,0.00,,,0.00,Wunderground v.1.15,2013-07-24 16:54:00,
2013-07-24 10:55:00,74.3,55.5,29.79,East,94,5.0,7.0,52,0.00,,,0.00,Wunderground v.1.15,2013-07-24 16:55:00,
2013-07-24 10:56:00,74.3,55.5,29.79,East,84,5.0,9.0,52,0.00,,,0.00,Wunderground v.1.15,2013-07-24 16:56:00,
2013-07-24 11:00:00,74.3,55.5,29.79,ESE,121,5.0,5.0,52,0.00,,,0.00,Wunderground v.1.15,2013-07-24 17:00:00,
2013-07-24 11:01:00,74.3,55.5,29.79,ESE,108,5.0,5.0,52,0.00,,,0.00,Wunderground v.1.15,2013-07-24 17:01:00,
2013-07-24 11:03:00,74.6,55.8,29.79,SE,141,5.0,6.0,52,0.00,,,0.00,Wunderground v.1.15,2013-07-24 17:03:00,
2013-07-24 11:05:00,74.5,55.7,29.79,ESE,118,5.0,9.0,52,0.00,,,0.00,Wunderground v.1.15,2013-07-24 17:05:00,
2013-07-24 11:06:00,74.4,55.6,29.79,SE,139,5.0,9.0,52,0.00,,,0.00,Wunderground v.1.15,2013-07-24 17:06:00,
2013-07-24 11:07:00,74.4,56.2,29.79,ENE,57,5.0,9.0,53,0.00,,,0.00,Wunderground v.1.15,2013-07-24 17:07:00,
2013-07-24 11:09:00,74.1,55.3,29.79,South,181,5.0,9.0,52,0.00,,,0.00,Wunderground v.1.15,2013-07-24 17:09:00,
2013-07-24 11:11:00,74.1,55.3,29.79,East,89,5.0,6.0,52,0.00,,,0.00,Wunderground v.1.15,2013-07-24 17:11:00,
2013-07-24 11:12:00,74.1,55.9,29.79,ESE,121,5.0,6.0,53,0.00,,,0.00,Wunderground v.1.15,2013-07-24 17:12:00,
2013-07-24 11:17:00,74.7,56.4,29.79,SSE,159,5.0,7.0,53,0.00,,,0.00,Wunderground v.1.15,2013-07-24 17:17:00,
2013-07-24 11:18:00,74.8,55.5,29.79,East,82,5.0,7.0,51,0.00,,,0.00,Wunderground v.1.15,2013-07-24 17:18:00,
2013-07-24 11:19:00,74.8,56.0,29.79,ESE,108,4.0,7.0,52,0.00,,,0.00,Wunderground v.1.15,2013-07-24 17:19:00,
2013-07-24 11:23:00,75.3,56.5,29.78,ESE,122,4.0,7.0,52,0.00,,,0.00,Wunderground v.1.15,2013-07-24 17:23:00,
2013-07-24 11:24:00,75.2,55.3,29.78,ESE,108,4.0,7.0,50,0.00,,,0.00,Wunderground v.1.15,2013-07-24 17:24:00,
2013-07-24 11:25:00,75.2,55.8,29.78,SE,134,4.0,7.0,51,0.00,,,0.00,Wunderground v.1.15,2013-07-24 17:25:00,
2013-07-24 11:26:00,75.2,55.3,29.78,ESE,118,4.0,7.0,50,0.00,,,0.00,Wunderground v.1.15,2013-07-24 17:26:00,
2013-07-24 11:30:00,75.2,55.3,29.78,SE,133,5.0,5.0,50,0.00,,,0.00,Wunderground v.1.15,2013-07-24 17:30:00,
2013-07-24 11:32:00,75.0,55.6,29.78,East,82,5.0,5.0,51,0.00,,,0.00,Wunderground v.1.15,2013-07-24 17:32:00,
2013-07-24 11:33:00,75.0,56.2,29.78,SE,124,4.0,5.0,52,0.00,,,0.00,Wunderground v.1.15,2013-07-24 17:33:00,
2013-07-24 11:34:00,75.2,56.4,29.78,ENE,78,4.0,5.0,52,0.00,,,0.00,Wunderground v.1.15,2013-07-24 17:34:00,
2013-07-24 11:35:00,75.5,56.6,29.78,East,82,4.0,5.0,52,0.00,,,0.00,Wunderground v.1.15,2013-07-24 17:35:00,
2013-07-24 11:41:00,76.0,56.6,29.78,ENE,75,3.0,6.0,51,0.00,,,0.00,Wunderground v.1.15,2013-07-24 17:41:00,
2013-07-24 11:42:00,76.1,56.1,29.78,ESE,117,3.0,6.0,50,0.00,,,0.00,Wunderground v.1.15,2013-07-24 17:42:00,
2013-07-24 11:43:00,76.2,56.7,29.78,East,81,3.0,6.0,51,0.00,,,0.00,Wunderground v.1.15,2013-07-24 17:43:00,
2013-07-24 11:47:00,77.2,56.6,29.77,South,171,3.0,6.0,49,0.00,,,0.00,Wunderground v.1.15,2013-07-24 17:47:00,
2013-07-24 11:48:00,77.3,56.6,29.78,ENE,70,3.0,10.0,49,0.00,,,0.00,Wunderground v.1.15,2013-07-24 17:48:00,
2013-07-24 11:51:00,76.6,56.0,29.78,NE,52,4.0,4.0,49,0.00,,,0.00,Wunderground v.1.15,2013-07-24 17:51:00,
2013-07-24 11:53:00,76.6,56.6,29.78,NE,56,4.0,4.0,50,0.00,,,0.00,Wunderground v.1.15,2013-07-24 17:53:00,
2013-07-24 11:54:00,76.8,56.8,29.78,NNE,30,4.0,5.0,50,0.00,,,0.00,Wunderground v.1.15,2013-07-24 17:54:00,
2013-07-24 11:57:00,75.9,55.4,29.78,ENE,72,5.0,9.0,49,0.00,,,0.00,Wunderground v.1.15,2013-07-24 17:57:00,
2013-07-24 11:58:00,75.6,55.6,29.78,ENE,72,5.0,9.0,50,0.00,,,0.00,Wunderground v.1.15,2013-07-24 17:58:00,
2013-07-24 12:01:00,75.2,55.3,29.78,NE,41,5.0,5.0,50,0.00,,,0.00,Wunderground v.1.15,2013-07-24 18:01:00,
2013-07-24 12:03:00,75.4,55.5,29.77,NNE,31,5.0,5.0,50,0.00,,,0.00,Wunderground v.1.15,2013-07-24 18:03:00,
2013-07-24 12:04:00,75.6,55.6,29.77,NE,37,5.0,5.0,50,0.00,,,0.00,Wunderground v.1.15,2013-07-24 18:04:00,
2013-07-24 12:05:00,75.9,56.5,29.77,SE,131,5.0,5.0,51,0.00,,,0.00,Wunderground v.1.15,2013-07-24 18:05:00,
2013-07-24 12:08:00,76.8,56.2,29.77,NE,53,4.0,5.0,49,0.00,,,0.00,Wunderground v.1.15,2013-07-24 18:08:00,
2013-07-24 12:09:00,76.9,56.3,29.77,NE,49,4.0,5.0,49,0.00,,,0.00,Wunderground v.1.15,2013-07-24 18:09:00,
2013-07-24 12:10:00,76.9,55.7,29.77,East,85,4.0,4.0,48,0.00,,,0.00,Wunderground v.1.15,2013-07-24 18:10:00,
2013-07-24 12:14:00,77.0,55.8,29.77,East,91,5.0,9.0,48,0.00,,,0.00,Wunderground v.1.15,2013-07-24 18:14:00,
2013-07-24 12:15:00,77.0,56.4,29.76,ENE,70,4.0,9.0,49,0.00,,,0.00,Wunderground v.1.15,2013-07-24 18:15:00,
2013-07-24 12:16:00,77.1,56.5,29.76,SSE,152,5.0,9.0,49,0.00,,,0.00,Wunderground v.1.15,2013-07-24 18:16:00,
2013-07-24 12:18:00,77.1,55.9,29.77,East,100,5.0,12.0,48,0.00,,,0.00,Wunderground v.1.15,2013-07-24 18:18:00,
2013-07-24 12:19:00,77.0,55.8,29.76,SSE,167,5.0,5.0,48,0.00,,,0.00,Wunderground v.1.15,2013-07-24 18:19:00,
2013-07-24 12:21:00,77.0,56.4,29.77,East,90,5.0,5.0,49,0.00,,,0.00,Wunderground v.1.15,2013-07-24 18:21:00,
2013-07-24 12:22:00,77.0,55.8,29.76,East,79,5.0,7.0,48,0.00,,,0.00,Wunderground v.1.15,2013-07-24 18:22:00,
2013-07-24 12:25:00,76.9,56.3,29.76,ESE,120,5.0,9.0,49,0.00,,,0.00,Wunderground v.1.15,2013-07-24 18:25:00,
2013-07-24 12:26:00,77.0,55.2,29.77,East,87,5.0,9.0,47,0.00,,,0.00,Wunderground v.1.15,2013-07-24 18:26:00,
2013-07-24 12:29:00,77.4,56.2,29.77,East,90,5.0,9.0,48,0.00,,,0.00,Wunderground v.1.15,2013-07-24 18:29:00,
2013-07-24 12:30:00,77.4,55.0,29.76,East,84,5.0,6.0,46,0.00,,,0.00,Wunderground v.1.15,2013-07-24 18:30:00,
2013-07-24 12:33:00,77.9,55.5,29.76,South,169,5.0,6.0,46,0.00,,,0.00,Wunderground v.1.15,2013-07-24 18:33:00,
2013-07-24 12:36:00,77.9,54.8,29.76,ESE,120,5.0,6.0,45,0.00,,,0.00,Wunderground v.1.15,2013-07-24 18:36:00,
2013-07-24 12:37:00,77.8,54.8,29.76,East,86,5.0,6.0,45,0.00,,,0.00,Wunderground v.1.15,2013-07-24 18:37:00,
2013-07-24 12:39:00,78.1,55.0,29.76,East,97,4.0,5.0,45,0.00,,,0.00,Wunderground v.1.15,2013-07-24 18:39:00,
2013-07-24 12:40:00,78.3,55.2,29.76,SE,128,4.0,5.0,45,0.00,,,0.00,Wunderground v.1.15,2013-07-24 18:40:00,
2013-07-24 12:42:00,78.6,55.5,29.76,SE,135,5.0,5.0,45,0.00,,,0.00,Wunderground v.1.15,2013-07-24 18:42:00,
2013-07-24 12:46:00,78.9,54.5,29.76,ESE,116,4.0,5.0,43,0.00,,,0.00,Wunderground v.1.15,2013-07-24 18:46:00,
2013-07-24 12:48:00,78.3,55.8,29.76,ESE,105,4.0,8.0,46,0.00,,,0.00,Wunderground v.1.15,2013-07-24 18:48:00,
2013-07-24 12:49:00,78.5,56.6,29.76,ESE,105,4.0,8.0,47,0.00,,,0.00,Wunderground v.1.15,2013-07-24 18:49:00,
2013-07-24 12:50:00,78.7,55.6,29.76,East,85,4.0,4.0,45,0.00,,,0.00,Wunderground v.1.15,2013-07-24 18:50:00,
2013-07-24 12:51:00,78.8,55.7,29.76,East,101,4.0,7.0,45,0.00,,,0.00,Wunderground v.1.15,2013-07-24 18:51:00,
2013-07-24 12:56:00,78.4,54.7,29.76,ENE,75,5.0,8.0,44,0.00,,,0.00,Wunderground v.1.15,2013-07-24 18:56:00,
2013-07-24 12:58:00,78.3,54.6,29.75,East,86,5.0,8.0,44,0.00,,,0.00,Wunderground v.1.15,2013-07-24 18:58:00,
2013-07-24 13:00:00,78.0,54.3,29.75,East,95,5.0,5.0,44,0.00,,,0.00,Wunderground v.1.15,2013-07-24 19:00:00,
2013-07-24 13:04:00,78.8,55.0,29.75,ESE,107,5.0,5.0,44,0.00,,,0.00,Wunderground v.1.15,2013-07-24 19:04:00,
2013-07-24 13:05:00,78.6,55.5,29.75,ESE,103,5.0,11.0,45,0.00,,,0.00,Wunderground v.1.15,2013-07-24 19:05:00,
2013-07-24 13:08:00,78.4,55.3,29.75,NE,53,5.0,11.0,45,0.00,,,0.00,Wunderground v.1.15,2013-07-24 19:08:00,
2013-07-24 13:09:00,78.4,55.3,29.75,East,87,5.0,11.0,45,0.00,,,0.00,Wunderground v.1.15,2013-07-24 19:09:00,
2013-07-24 13:13:00,78.5,54.8,29.75,East,98,6.0,9.0,44,0.00,,,0.00,Wunderground v.1.15,2013-07-24 19:13:00,
2013-07-24 13:14:00,78.6,54.2,29.75,SE,131,6.0,10.0,43,0.00,,,0.00,Wunderground v.1.15,2013-07-24 19:14:00,
2013-07-24 13:15:00,78.4,54.7,29.75,SSE,160,6.0,10.0,44,0.00,,,0.00,Wunderground v.1.15,2013-07-24 19:15:00,
2013-07-24 13:16:00,78.4,54.0,29.75,SE,128,6.0,10.0,43,0.00,,,0.00,Wunderground v.1.15,2013-07-24 19:16:00,
2013-07-24 13:20:00,78.6,56.1,29.76,East,85,5.0,5.0,46,0.00,,,0.00,Wunderground v.1.15,2013-07-24 19:20:00,
2013-07-24 13:21:00,78.6,55.5,29.76,ESE,123,5.0,5.0,45,0.00,,,0.00,Wunderground v.1.15,2013-07-24 19:21:00,
2013-07-24 13:23:00,78.6,55.5,29.77,NNW,338,5.0,5.0,45,0.00,,,0.00,Wunderground v.1.15,2013-07-24 19:23:00,
2013-07-24 13:25:00,78.0,56.1,29.77,NE,38,4.0,7.0,47,0.00,,,0.00,Wunderground v.1.15,2013-07-24 19:25:00,
2013-07-24 13:28:00,76.8,56.2,29.77,NNE,26,4.0,9.0,49,0.00,,,0.00,Wunderground v.1.15,2013-07-24 19:28:00,
2013-07-24 13:29:00,76.3,55.7,29.77,East,87,4.0,9.0,49,0.00,,,0.00,Wunderground v.1.15,2013-07-24 19:29:00,
2013-07-24 13:31:00,75.0,55.6,29.77,North,11,5.0,8.0,51,0.00,,,0.00,Wunderground v.1.15,2013-07-24 19:31:00,
2013-07-24 13:32:00,74.6,55.8,29.77,NE,36,5.0,8.0,52,0.00,,,0.00,Wunderground v.1.15,2013-07-24 19:32:00,
2013-07-24 13:33:00,74.2,56.0,29.77,NNE,31,5.0,8.0,53,0.00,,,0.00,Wunderground v.1.15,2013-07-24 19:33:00,
2013-07-24 13:34:00,73.8,55.6,29.77,NE,52,6.0,8.0,53,0.00,,,0.00,Wunderground v.1.15,2013-07-24 19:34:00,
2013-07-24 13:36:00,72.9,55.3,29.77,NW,308,6.0,11.0,54,0.00,,,0.00,Wunderground v.1.15,2013-07-24 19:36:00,
2013-07-24 13:39:00,72.0,55.9,29.78,West,271,6.0,11.0,57,0.00,,,0.00,Wunderground v.1.15,2013-07-24 19:39:00,
2013-07-24 13:40:00,71.4,56.3,29.78,North,350,6.0,6.0,59,0.00,,,0.00,Wunderground v.1.15,2013-07-24 19:40:00,
2013-07-24 13:41:00,70.8,56.7,29.78,ESE,109,6.0,6.0,61,0.00,,,0.00,Wunderground v.1.15,2013-07-24 19:41:00,
2013-07-24 13:43:00,69.8,58.3,29.78,NNE,28,6.0,6.0,67,0.00,,,0.00,Wunderground v.1.15,2013-07-24 19:43:00,
2013-07-24 13:44:00,69.4,58.0,29.78,NNE,23,6.0,6.0,67,0.00,,,0.00,Wunderground v.1.15,2013-07-24 19:44:00,
2013-07-24 13:47:00,68.2,57.6,29.77,North,4,6.0,10.0,69,0.00,,,0.00,Wunderground v.1.15,2013-07-24 19:47:00,
2013-07-24 13:50:00,67.7,54.6,29.77,North,11,6.0,6.0,63,0.00,,,0.00,Wunderground v.1.15,2013-07-24 19:50:00,
2013-07-24 13:53:00,66.7,51.0,29.76,NE,49,6.0,6.0,57,0.25,,,0.02,Wunderground v.1.15,2013-07-24 19:53:00,
2013-07-24 13:54:00,66.2,51.9,29.76,North,1,5.0,6.0,60,0.24,,,0.02,Wunderground v.1.15,2013-07-24 19:54:00,
2013-07-24 13:56:00,65.8,54.1,29.77,NE,46,4.0,6.0,66,0.17,,,0.03,Wunderground v.1.15,2013-07-24 19:56:00,
2013-07-24 13:59:00,64.9,56.0,29.76,ENE,77,4.0,6.0,73,0.17,,,0.03,Wunderground v.1.15,2013-07-24 19:59:00,
2013-07-24 14:00:00,64.6,57.2,29.77,NE,54,4.0,4.0,77,0.13,,,0.03,Wunderground v.1.15,2013-07-24 20:00:00,
2013-07-24 14:03:00,64.1,57.1,29.77,East,84,3.0,6.0,78,0.09,,,0.04,Wunderground v.1.15,2013-07-24 20:03:00,
2013-07-24 14:05:00,63.9,56.2,29.77,ESE,105,3.0,6.0,76,0.09,,,0.04,Wunderground v.1.15,2013-07-24 20:05:00,
2013-07-24 14:07:00,64.1,57.1,29.77,NE,41,4.0,6.0,78,0.09,,,0.04,Wunderground v.1.15,2013-07-24 20:07:00,
2013-07-24 14:10:00,63.8,56.1,29.76,SE,125,4.0,4.0,76,0.08,,,0.04,Wunderground v.1.15,2013-07-24 20:10:00,
2013-07-24 14:11:00,63.8,57.2,29.76,ESE,118,4.0,4.0,79,0.07,,,0.04,Wunderground v.1.15,2013-07-24 20:11:00,
2013-07-24 14:12:00,63.8,56.8,29.77,SE,146,4.0,4.0,78,0.07,,,0.05,Wunderground v.1.15,2013-07-24 20:12:00,
2013-07-24 14:14:00,63.9,57.3,29.77,West,259,3.0,4.0,79,0.22,,,0.05,Wunderground v.1.15,2013-07-24 20:14:00,
2013-07-24 14:16:00,64.0,58.1,29.78,WNW,284,4.0,12.0,81,0.20,,,0.06,Wunderground v.1.15,2013-07-24 20:16:00,
2013-07-24 14:19:00,63.0,57.1,29.78,WNW,297,5.0,7.0,81,0.10,,,0.06,Wunderground v.1.15,2013-07-24 20:19:00,
2013-07-24 14:21:00,62.5,56.2,29.78,WNW,302,6.0,12.0,80,0.08,,,0.06,Wunderground v.1.15,2013-07-24 20:21:00,
2013-07-24 14:22:00,62.1,55.5,29.78,NNW,342,7.0,12.0,79,0.07,,,0.06,Wunderground v.1.15,2013-07-24 20:22:00,
2013-07-24 14:23:00,61.8,55.6,29.78,WNW,298,7.0,13.0,80,0.07,,,0.07,Wunderground v.1.15,2013-07-24 20:23:00,
2013-07-24 14:24:00,61.5,54.6,29.78,WNW,293,8.0,13.0,78,0.07,,,0.07,Wunderground v.1.15,2013-07-24 20:24:00,
2013-07-24 14:29:00,63.1,55.8,29.78,WNW,284,7.0,13.0,77,0.07,,,0.07,Wunderground v.1.15,2013-07-24 20:29:00,
2013-07-24 14:30:00,63.6,56.6,29.78,WNW,284,6.0,6.0,78,0.07,,,0.07,Wunderground v.1.15,2013-07-24 20:30:00,
2013-07-24 14:31:00,63.9,57.6,29.78,NW,304,5.0,6.0,80,0.07,,,0.07,Wunderground v.1.15,2013-07-24 20:31:00,
2013-07-24 14:33:00,63.5,56.2,29.78,NW,305,5.0,6.0,77,0.06,,,0.07,Wunderground v.1.15,2013-07-24 20:33:00,
2013-07-24 14:37:00,62.7,57.1,29.78,WSW,252,2.0,6.0,82,0.04,,,0.07,Wunderground v.1.15,2013-07-24 20:37:00,
2013-07-24 14:38:00,62.5,56.6,29.78,North,9,2.0,6.0,81,0.04,,,0.07,Wunderground v.1.15,2013-07-24 20:38:00,
2013-07-24 14:39:00,62.4,56.5,29.78,NNE,13,2.0,2.0,81,0.00,,,0.07,Wunderground v.1.15,2013-07-24 20:39:00,
2013-07-24 14:40:00,62.3,56.4,29.77,NNE,12,2.0,2.0,81,0.00,,,0.07,Wunderground v.1.15,2013-07-24 20:40:00,
2013-07-24 14:46:00,61.9,56.3,29.77,West,277,1.0,3.0,82,0.00,,,0.07,Wunderground v.1.15,2013-07-24 20:46:00,
2013-07-24 14:47:00,61.8,56.2,29.77,NW,305,2.0,4.0,82,0.00,,,0.07,Wunderground v.1.15,2013-07-24 20:47:00,
2013-07-24 14:49:00,61.8,55.6,29.77,West,264,2.0,4.0,80,0.00,,,0.07,Wunderground v.1.15,2013-07-24 20:49:00,
2013-07-24 14:50:00,61.9,55.7,29.78,WNW,288,2.0,3.0,80,0.00,,,0.07,Wunderground v.1.15,2013-07-24 20:50:00,
2013-07-24 14:52:00,62.0,55.8,29.78,West,269,2.0,3.0,80,0.00,,,0.07,Wunderground v.1.15,2013-07-24 20:52:00,
2013-07-24 14:55:00,62.1,56.5,29.78,West,278,2.0,3.0,82,0.00,,,0.07,Wunderground v.1.15,2013-07-24 20:55:00,
2013-07-24 14:56:00,62.1,56.5,29.78,West,274,3.0,3.0,82,0.00,,,0.07,Wunderground v.1.15,2013-07-24 20:56:00,
2013-07-24 14:59:00,62.3,56.7,29.78,SE,136,2.0,3.0,82,0.00,,,0.07,Wunderground v.1.15,2013-07-24 20:59:00,
2013-07-24 15:00:00,62.4,57.8,29.78,SE,136,2.0,2.0,85,0.00,,,0.07,Wunderground v.1.15,2013-07-24 21:00:00,
2013-07-24 15:01:00,62.4,57.5,29.78,SE,136,2.0,2.0,84,0.00,,,0.07,Wunderground v.1.15,2013-07-24 21:01:00,
2013-07-24 15:02:00,62.5,57.6,29.78,SE,134,2.0,2.0,84,0.00,,,0.07,Wunderground v.1.15,2013-07-24 21:02:00,
2013-07-24 15:07:00,62.0,55.1,29.78,WNW,284,2.0,5.0,78,0.00,,,0.07,Wunderground v.1.15,2013-07-24 21:07:00,
2013-07-24 15:09:00,61.6,55.0,29.78,NW,304,3.0,7.0,79,0.00,,,0.07,Wunderground v.1.15,2013-07-24 21:09:00,
2013-07-24 15:12:00,61.3,54.7,29.79,WNW,298,4.0,9.0,79,0.00,,,0.07,Wunderground v.1.15,2013-07-24 21:12:00,
2013-07-24 15:13:00,61.3,54.7,29.79,NW,308,4.0,9.0,79,0.00,,,0.07,Wunderground v.1.15,2013-07-24 21:13:00,
2013-07-24 15:14:00,61.2,54.3,29.79,WNW,300,5.0,9.0,78,0.00,,,0.07,Wunderground v.1.15,2013-07-24 21:14:00,
2013-07-24 15:17:00,61.0,55.1,29.81,SW,226,5.0,9.0,81,0.00,,,0.07,Wunderground v.1.15,2013-07-24 21:17:00,
2013-07-24 15:18:00,61.0,55.5,29.81,SW,225,5.0,9.0,82,0.00,,,0.07,Wunderground v.1.15,2013-07-24 21:18:00,
2013-07-24 15:19:00,61.0,55.8,29.81,SE,132,4.0,9.0,83,0.00,,,0.07,Wunderground v.1.15,2013-07-24 21:19:00,
2013-07-24 15:23:00,61.6,55.4,29.82,SSW,212,3.0,8.0,80,0.00,,,0.07,Wunderground v.1.15,2013-07-24 21:23:00,
2013-07-24 15:25:00,62.0,54.7,29.82,SW,221,4.0,9.0,77,0.00,,,0.07,Wunderground v.1.15,2013-07-24 21:25:00,
2013-07-24 15:26:00,62.2,54.9,29.81,SW,226,4.0,9.0,77,0.00,,,0.07,Wunderground v.1.15,2013-07-24 21:26:00,
2013-07-24 15:28:00,62.5,54.8,29.81,SSW,208,6.0,9.0,76,0.00,,,0.07,Wunderground v.1.15,2013-07-24 21:28:00,
2013-07-24 15:29:00,62.6,54.2,29.81,SSW,210,7.0,7.0,74,0.00,,,0.07,Wunderground v.1.15,2013-07-24 21:29:00,
2013-07-24 15:32:00,62.8,53.3,29.82,ESE,117,7.0,8.0,71,0.00,,,0.07,Wunderground v.1.15,2013-07-24 21:32:00,
2013-07-24 15:35:00,63.1,51.1,29.81,SW,222,6.0,8.0,65,0.00,,,0.07,Wunderground v.1.15,2013-07-24 21:35:00,
2013-07-24 15:37:00,63.2,50.8,29.82,WSW,249,6.0,8.0,64,0.00,,,0.07,Wunderground v.1.15,2013-07-24 21:37:00,
2013-07-24 15:40:00,62.6,51.5,29.82,West,277,5.0,5.0,67,0.00,,,0.07,Wunderground v.1.15,2013-07-24 21:40:00,
2013-07-24 15:43:00,62.0,51.3,29.82,West,263,4.0,6.0,68,0.00,,,0.07,Wunderground v.1.15,2013-07-24 21:43:00,
2013-07-24 15:44:00,61.9,51.6,29.81,West,260,4.0,6.0,69,0.00,,,0.07,Wunderground v.1.15,2013-07-24 21:44:00,
2013-07-24 15:47:00,61.5,51.2,29.81,West,260,4.0,6.0,69,0.00,,,0.07,Wunderground v.1.15,2013-07-24 21:47:00,
2013-07-24 15:51:00,61.7,51.8,29.82,WNW,290,4.0,4.0,70,0.00,,,0.07,Wunderground v.1.15,2013-07-24 21:51:00,
2013-07-24 15:52:00,61.7,52.2,29.82,West,278,4.0,4.0,71,0.00,,,0.07,Wunderground v.1.15,2013-07-24 21:52:00,
2013-07-24 15:53:00,61.8,51.9,29.81,West,274,4.0,4.0,70,0.00,,,0.07,Wunderground v.1.15,2013-07-24 21:53:00,
2013-07-24 15:54:00,61.8,52.7,29.81,West,278,4.0,4.0,72,0.00,,,0.07,Wunderground v.1.15,2013-07-24 21:54:00,
2013-07-24 15:58:00,62.2,51.9,29.81,West,266,5.0,7.0,69,0.00,,,0.07,Wunderground v.1.15,2013-07-24 21:58:00,
2013-07-24 16:00:00,62.3,52.4,29.81,WNW,293,5.0,11.0,70,0.00,,,0.07,Wunderground v.1.15,2013-07-24 22:00:00,
2013-07-24 16:04:00,62.6,51.5,29.81,NW,312,7.0,11.0,67,0.00,,,0.07,Wunderground v.1.15,2013-07-24 22:04:00,
2013-07-24 16:05:00,62.7,52.4,29.81,NW,305,7.0,11.0,69,0.00,,,0.07,Wunderground v.1.15,2013-07-24 22:05:00,
2013-07-24 16:08:00,62.8,51.7,29.81,WNW,288,7.0,11.0,67,0.00,,,0.07,Wunderground v.1.15,2013-07-24 22:08:00,
2013-07-24 16:10:00,62.9,52.6,29.81,SE,125,6.0,6.0,69,0.00,,,0.07,Wunderground v.1.15,2013-07-24 22:10:00,
2013-07-24 16:11:00,62.9,53.7,29.81,SSE,147,5.0,6.0,72,0.00,,,0.07,Wunderground v.1.15,2013-07-24 22:11:00,
2013-07-24 16:13:00,62.8,54.0,29.81,SW,236,4.0,7.0,73,0.00,,,0.07,Wunderground v.1.15,2013-07-24 22:13:00,
2013-07-24 16:16:00,62.5,54.1,29.82,SSW,195,4.0,8.0,74,0.00,,,0.07,Wunderground v.1.15,2013-07-24 22:16:00,
2013-07-24 16:17:00,62.4,54.7,29.82,SW,214,5.0,8.0,76,0.00,,,0.07,Wunderground v.1.15,2013-07-24 22:17:00,
2013-07-24 16:18:00,62.2,54.5,29.82,WSW,243,5.0,8.0,76,0.00,,,0.08,Wunderground v.1.15,2013-07-24 22:18:00,
2013-07-24 16:19:00,62.1,54.4,29.82,SSW,209,5.0,8.0,76,0.00,,,0.08,Wunderground v.1.15,2013-07-24 22:19:00,
2013-07-24 16:22:00,61.7,54.4,29.82,WSW,239,7.0,14.0,77,0.00,,,0.08,Wunderground v.1.15,2013-07-24 22:22:00,
2013-07-24 16:24:00,61.4,53.8,29.82,WSW,242,7.0,14.0,76,0.00,,,0.08,Wunderground v.1.15,2013-07-24 22:24:00,
2013-07-24 16:25:00,61.3,54.0,29.82,SW,226,6.0,14.0,77,0.00,,,0.08,Wunderground v.1.15,2013-07-24 22:25:00,
2013-07-24 16:27:00,61.1,53.8,29.83,SSW,211,6.0,14.0,77,0.00,,,0.08,Wunderground v.1.15,2013-07-24 22:27:00,
2013-07-24 16:29:00,60.9,53.6,29.82,WSW,239,6.0,14.0,77,0.00,,,0.08,Wunderground v.1.15,2013-07-24 22:29:00,
2013-07-24 16:32:00,61.3,53.7,29.82,SSE,157,6.0,14.0,76,0.00,,,0.08,Wunderground v.1.15,2013-07-24 22:32:00,
2013-07-24 16:35:00,61.8,51.1,29.83,West,270,7.0,14.0,68,0.00,,,0.08,Wunderground v.1.15,2013-07-24 22:35:00,
2013-07-24 16:36:00,61.6,51.3,29.83,WNW,293,8.0,14.0,69,0.00,,,0.08,Wunderground v.1.15,2013-07-24 22:36:00,
2013-07-24 16:38:00,61.2,50.9,29.83,SSW,204,8.0,14.0,69,0.00,,,0.08,Wunderground v.1.15,2013-07-24 22:38:00,
2013-07-24 16:40:00,60.7,51.2,29.83,WNW,284,7.0,8.0,71,0.00,,,0.08,Wunderground v.1.15,2013-07-24 22:40:00,
2013-07-24 16:42:00,60.4,51.0,29.83,SSW,210,7.0,10.0,71,0.00,,,0.09,Wunderground v.1.15,2013-07-24 22:42:00,
2013-07-24 16:43:00,60.2,50.8,29.83,WSW,238,7.0,13.0,71,0.00,,,0.09,Wunderground v.1.15,2013-07-24 22:43:00,
2013-07-24 16:44:00,60.0,50.9,29.84,SW,222,8.0,13.0,72,0.00,,,0.09,Wunderground v.1.15,2013-07-24 22:44:00,
2013-07-24 16:47:00,59.5,52.3,29.83,SW,226,7.0,13.0,77,0.10,,,0.10,Wunderground v.1.15,2013-07-24 22:47:00,
2013-07-24 16:49:00,59.2,52.0,29.83,South,179,8.0,13.0,77,0.10,,,0.10,Wunderground v.1.15,2013-07-24 22:49:00,
2013-07-24 16:50:00,59.1,51.5,29.82,SW,222,9.0,9.0,76,0.16,,,0.10,Wunderground v.1.15,2013-07-24 22:50:00,
2013-07-24 16:52:00,59.3,51.7,29.81,SE,132,8.0,9.0,76,0.16,,,0.11,Wunderground v.1.15,2013-07-24 22:52:00,
2013-07-24 16:55:00,59.0,51.1,29.81,SE,139,7.0,9.0,75,0.11,,,0.11,Wunderground v.1.15,2013-07-24 22:55:00,
2013-07-24 16:56:00,59.0,51.4,29.81,SSW,197,7.0,9.0,76,0.09,,,0.11,Wunderground v.1.15,2013-07-24 22:56:00,
2013-07-24 16:58:00,59.0,50.4,29.81,WSW,242,6.0,9.0,73,0.07,,,0.11,Wunderground v.1.15,2013-07-24 22:58:00,
2013-07-24 16:59:00,59.3,50.6,29.81,SW,226,6.0,9.0,73,0.06,,,0.11,Wunderground v.1.15,2013-07-24 22:59:00,
2013-07-24 17:04:00,59.6,52.7,29.82,WSW,252,6.0,12.0,78,0.04,,,0.11,Wunderground v.1.15,2013-07-24 23:04:00,
2013-07-24 17:05:00,59.5,53.0,29.82,WSW,257,6.0,12.0,79,0.04,,,0.11,Wunderground v.1.15,2013-07-24 23:05:00,
2013-07-24 17:06:00,59.4,52.9,29.82,West,281,6.0,12.0,79,0.04,,,0.11,Wunderground v.1.15,2013-07-24 23:06:00,
2013-07-24 17:08:00,59.5,53.0,29.82,West,281,7.0,12.0,79,0.00,,,0.11,Wunderground v.1.15,2013-07-24 23:08:00,
2013-07-24 17:11:00,60.1,52.5,29.81,WNW,288,6.0,6.0,76,0.00,,,0.11,Wunderground v.1.15,2013-07-24 23:11:00,
2013-07-24 17:12:00,60.4,52.1,29.81,WNW,288,5.0,6.0,74,0.00,,,0.11,Wunderground v.1.15,2013-07-24 23:12:00,
2013-07-24 17:13:00,60.6,53.0,29.81,NW,304,5.0,6.0,76,0.00,,,0.11,Wunderground v.1.15,2013-07-24 23:13:00,
2013-07-24 17:14:00,60.7,52.0,29.81,West,277,5.0,6.0,73,0.00,,,0.11,Wunderground v.1.15,2013-07-24 23:14:00,
2013-07-24 17:16:00,61.0,51.9,29.81,WSW,257,5.0,6.0,72,0.00,,,0.11,Wunderground v.1.15,2013-07-24 23:16:00,
2013-07-24 17:17:00,61.1,52.0,29.81,West,269,5.0,6.0,72,0.00,,,0.11,Wunderground v.1.15,2013-07-24 23:17:00,
2013-07-24 17:18:00,61.3,52.6,29.81,West,262,5.0,12.0,73,0.00,,,0.11,Wunderground v.1.15,2013-07-24 23:18:00,
2013-07-24 17:20:00,61.5,51.6,29.81,West,270,5.0,5.0,70,0.00,,,0.11,Wunderground v.1.15,2013-07-24 23:20:00,
2013-07-24 17:23:00,61.8,51.5,29.81,WNW,287,6.0,8.0,69,0.00,,,0.11,Wunderground v.1.15,2013-07-24 23:23:00,
2013-07-24 17:25:00,62.0,51.7,29.80,WNW,290,6.0,8.0,69,0.00,,,0.11,Wunderground v.1.15,2013-07-24 23:25:00,
2013-07-24 17:27:00,62.3,50.8,29.80,West,272,6.0,8.0,66,0.00,,,0.11,Wunderground v.1.15,2013-07-24 23:27:00,
2013-07-24 17:30:00,62.8,51.3,29.80,WSW,254,6.0,6.0,66,0.00,,,0.11,Wunderground v.1.15,2013-07-24 23:30:00,
2013-07-24 17:31:00,63.0,51.0,29.81,West,267,6.0,6.0,65,0.00,,,0.11,Wunderground v.1.15,2013-07-24 23:31:00,
2013-07-24 17:32:00,63.2,51.6,29.80,West,269,5.0,6.0,66,0.00,,,0.11,Wunderground v.1.15,2013-07-24 23:32:00,
2013-07-24 17:36:00,64.0,51.6,29.80,WSW,242,5.0,11.0,64,0.00,,,0.11,Wunderground v.1.15,2013-07-24 23:36:00,
2013-07-24 17:38:00,64.1,50.8,29.80,SW,232,5.0,11.0,62,0.00,,,0.11,Wunderground v.1.15,2013-07-24 23:38:00,
2013-07-24 17:39:00,64.1,50.8,29.80,WSW,238,5.0,11.0,62,0.00,,,0.11,Wunderground v.1.15,2013-07-24 23:39:00,
2013-07-24 17:42:00,64.4,48.4,29.79,WSW,249,5.0,10.0,56,0.00,,,0.11,Wunderground v.1.15,2013-07-24 23:42:00,
2013-07-24 17:44:00,64.6,49.5,29.79,SW,219,5.0,10.0,58,0.00,,,0.11,Wunderground v.1.15,2013-07-24 23:44:00,
2013-07-24 17:45:00,64.6,49.0,29.79,West,270,5.0,10.0,57,0.00,,,0.11,Wunderground v.1.15,2013-07-24 23:45:00,
2013-07-24 17:46:00,64.6,49.5,29.79,WSW,239,5.0,10.0,58,0.00,,,0.11,Wunderground v.1.15,2013-07-24 23:46:00,
2013-07-24 17:48:00,64.7,50.0,29.79,SW,224,5.0,10.0,59,0.00,,,0.11,Wunderground v.1.15,2013-07-24 23:48:00,
2013-07-24 17:51:00,64.8,49.2,29.78,WSW,253,5.0,7.0,57,0.00,,,0.11,Wunderground v.1.15,2013-07-24 23:51:00,
2013-07-24 17:52:00,64.9,49.3,29.78,SW,226,4.0,7.0,57,0.00,,,0.11,Wunderground v.1.15,2013-07-24 23:52:00,
2013-07-24 17:54:00,65.2,50.0,29.78,SW,230,4.0,7.0,58,0.00,,,0.11,Wunderground v.1.15,2013-07-24 23:54:00,
2013-07-24 17:55:00,65.3,49.7,29.78,WSW,239,4.0,7.0,57,0.00,,,0.11,Wunderground v.1.15,2013-07-24 23:55:00,
2013-07-24 17:56:00,65.4,49.8,29.78,West,269,4.0,7.0,57,0.00,,,0.11,Wunderground v.1.15,2013-07-24 23:56:00,
2013-07-24 17:59:00,65.8,50.6,29.78,WSW,252,4.0,7.0,58,0.00,,,0.11,Wunderground v.1.15,2013-07-24 23:59:00,
2013-07-24 18:00:00,66.2,49.6,29.78,NNE,20,3.0,4.0,55,0.00,,,0.11,Wunderground v.1.15,2013-07-25 00:00:00,
2013-07-24 18:03:00,66.6,46.3,29.78,NE,53,3.0,4.0,48,0.00,,,0.11,Wunderground v.1.15,2013-07-25 00:03:00,
2013-07-24 18:04:00,66.7,46.4,29.78,NE,53,3.0,4.0,48,0.00,,,0.11,Wunderground v.1.15,2013-07-25 00:04:00,
2013-07-24 18:05:00,66.9,47.6,29.78,WNW,293,2.0,4.0,50,0.00,,,0.11,Wunderground v.1.15,2013-07-25 00:05:00,
2013-07-24 18:10:00,67.7,48.4,29.78,West,273,2.0,2.0,50,0.00,,,0.11,Wunderground v.1.15,2013-07-25 00:10:00,
2013-07-24 18:11:00,67.9,49.1,29.78,WSW,239,2.0,2.0,51,0.00,,,0.11,Wunderground v.1.15,2013-07-25 00:11:00,
2013-07-24 18:12:00,68.1,49.8,29.78,West,267,2.0,2.0,52,0.00,,,0.11,Wunderground v.1.15,2013-07-25 00:12:00,
2013-07-24 18:16:00,68.6,50.8,29.78,WSW,257,2.0,3.0,53,0.00,,,0.11,Wunderground v.1.15,2013-07-25 00:16:00,
2013-07-24 18:18:00,68.6,50.3,29.78,SW,225,2.0,3.0,52,0.00,,,0.11,Wunderground v.1.15,2013-07-25 00:18:00,
2013-07-24 18:19:00,68.7,48.8,29.78,SSW,204,2.0,3.0,49,0.00,,,0.11,Wunderground v.1.15,2013-07-25 00:19:00,
2013-07-24 18:20:00,69.0,50.1,29.78,ESE,120,2.0,2.0,51,0.00,,,0.11,Wunderground v.1.15,2013-07-25 00:20:00,
2013-07-24 18:21:00,69.0,48.5,29.78,East,84,2.0,2.0,48,0.00,,,0.11,Wunderground v.1.15,2013-07-25 00:21:00,
2013-07-24 18:26:00,68.9,47.8,29.77,ESE,103,2.0,2.0,47,0.00,,,0.11,Wunderground v.1.15,2013-07-25 00:26:00,
2013-07-24 18:27:00,68.9,48.9,29.77,SSW,200,1.0,2.0,49,0.00,,,0.11,Wunderground v.1.15,2013-07-25 00:27:00,
2013-07-24 18:28:00,68.9,47.8,29.77,SSW,201,1.0,2.0,47,0.00,,,0.11,Wunderground v.1.15,2013-07-25 00:28:00,
2013-07-24 18:31:00,68.9,49.5,29.77,SSW,200,1.0,1.0,50,0.00,,,0.11,Wunderground v.1.15,2013-07-25 00:31:00,
2013-07-24 18:32:00,68.9,49.5,29.77,SSW,200,1.0,1.0,50,0.00,,,0.11,Wunderground v.1.15,2013-07-25 00:32:00,
2013-07-24 18:33:00,68.9,49.5,29.77,SSW,199,1.0,1.0,50,0.00,,,0.11,Wunderground v.1.15,2013-07-25 00:33:00,
2013-07-24 18:37:00,68.8,48.9,29.77,SSW,200,1.0,2.0,49,0.00,,,0.11,Wunderground v.1.15,2013-07-25 00:37:00,
2013-07-24 18:38:00,68.8,48.3,29.77,SSW,205,1.0,2.0,48,0.00,,,0.11,Wunderground v.1.15,2013-07-25 00:38:00,
2013-07-24 18:39:00,68.8,49.4,29.77,SSW,207,1.0,2.0,50,0.00,,,0.11,Wunderground v.1.15,2013-07-25 00:39:00,
2013-07-24 18:41:00,68.6,48.1,29.77,SSE,153,1.0,3.0,48,0.00,,,0.11,Wunderground v.1.15,2013-07-25 00:41:00,
2013-07-24 18:43:00,68.8,48.9,29.77,SSW,193,1.0,3.0,49,0.00,,,0.11,Wunderground v.1.15,2013-07-25 00:43:00,
2013-07-24 18:44:00,68.9,48.4,29.77,SW,229,1.0,3.0,48,0.00,,,0.11,Wunderground v.1.15,2013-07-25 00:44:00,
2013-07-24 18:46:00,68.9,48.9,29.77,SE,125,1.0,3.0,49,0.00,,,0.11,Wunderground v.1.15,2013-07-25 00:46:00,
2013-07-24 18:47:00,68.9,47.8,29.77,SE,125,1.0,3.0,47,0.00,,,0.11,Wunderground v.1.15,2013-07-25 00:47:00,
2013-07-24 18:49:00,68.8,49.9,29.77,SE,125,1.0,3.0,51,0.00,,,0.11,Wunderground v.1.15,2013-07-25 00:49:00,
2013-07-24 18:52:00,69.1,49.1,29.77,SE,125,0.0,1.0,49,0.00,,,0.11,Wunderground v.1.15,2013-07-25 00:52:00,
2013-07-24 18:53:00,69.2,49.2,29.77,SE,125,0.0,1.0,49,0.00,,,0.11,Wunderground v.1.15,2013-07-25 00:53:00,
2013-07-24 18:54:00,69.1,48.6,29.77,SE,125,0.0,1.0,48,0.00,,,0.11,Wunderground v.1.15,2013-07-25 00:54:00,
2013-07-24 18:58:00,68.9,51.1,29.78,SSW,207,0.0,1.0,53,0.00,,,0.11,Wunderground v.1.15,2013-07-25 00:58:00,
2013-07-24 19:00:00,68.8,48.3,29.77,SSW,204,0.0,0.0,48,0.00,,,0.11,Wunderground v.1.15,2013-07-25 01:00:00,
2013-07-24 19:01:00,68.8,48.3,29.78,WSW,242,0.0,1.0,48,0.00,,,0.11,Wunderground v.1.15,2013-07-25 01:01:00,
2013-07-24 19:03:00,68.6,49.7,29.77,SW,221,0.0,1.0,51,0.00,,,0.11,Wunderground v.1.15,2013-07-25 01:03:00,
2013-07-24 19:04:00,68.6,50.8,29.77,SW,222,0.0,1.0,53,0.00,,,0.11,Wunderground v.1.15,2013-07-25 01:04:00,
2013-07-24 19:07:00,68.5,48.6,29.77,WSW,257,1.0,3.0,49,0.00,,,0.11,Wunderground v.1.15,2013-07-25 01:07:00,
2013-07-24 19:10:00,68.0,49.2,29.77,WNW,287,2.0,5.0,51,0.00,,,0.11,Wunderground v.1.15,2013-07-25 01:10:00,
2013-07-24 19:12:00,67.7,49.4,29.77,WSW,252,2.0,5.0,52,0.00,,,0.11,Wunderground v.1.15,2013-07-25 01:12:00,
2013-07-24 19:15:00,67.4,49.2,29.77,WSW,254,3.0,5.0,52,0.00,,,0.11,Wunderground v.1.15,2013-07-25 01:15:00,
2013-07-24 19:16:00,67.4,48.6,29.77,West,267,3.0,5.0,51,0.00,,,0.11,Wunderground v.1.15,2013-07-25 01:16:00,
2013-07-24 19:17:00,67.3,49.6,29.77,West,264,3.0,5.0,53,0.00,,,0.11,Wunderground v.1.15,2013-07-25 01:17:00,
2013-07-24 19:22:00,67.1,49.9,29.77,West,281,2.0,3.0,54,0.00,,,0.11,Wunderground v.1.15,2013-07-25 01:22:00,
2013-07-24 19:23:00,67.0,49.3,29.77,West,280,2.0,3.0,53,0.00,,,0.11,Wunderground v.1.15,2013-07-25 01:23:00,
2013-07-24 19:29:00,66.7,51.0,29.77,WNW,300,1.0,3.0,57,0.00,,,0.11,Wunderground v.1.15,2013-07-25 01:29:00,
2013-07-24 19:30:00,66.6,51.4,29.77,NNW,329,1.0,2.0,58,0.00,,,0.11,Wunderground v.1.15,2013-07-25 01:30:00,
2013-07-24 19:32:00,66.2,52.3,29.77,NW,317,1.0,3.0,61,0.00,,,0.11,Wunderground v.1.15,2013-07-25 01:32:00,
2013-07-24 19:36:00,65.5,52.1,29.77,NNE,29,2.0,5.0,62,0.00,,,0.11,Wunderground v.1.15,2013-07-25 01:36:00,
2013-07-24 19:38:00,65.3,51.9,29.77,NNE,29,2.0,5.0,62,0.00,,,0.11,Wunderground v.1.15,2013-07-25 01:38:00,
2013-07-24 19:40:00,65.1,52.2,29.77,ENE,71,2.0,2.0,63,0.00,,,0.11,Wunderground v.1.15,2013-07-25 01:40:00,
2013-07-24 19:41:00,65.0,51.7,29.77,ENE,71,2.0,2.0,62,0.00,,,0.11,Wunderground v.1.15,2013-07-25 01:41:00,
2013-07-24 19:43:00,65.0,52.5,29.77,East,85,2.0,2.0,64,0.00,,,0.11,Wunderground v.1.15,2013-07-25 01:43:00,
2013-07-24 19:44:00,65.0,52.5,29.77,East,84,1.0,2.0,64,0.00,,,0.11,Wunderground v.1.15,2013-07-25 01:44:00,
2013-07-24 19:45:00,64.9,52.0,29.77,East,85,1.0,2.0,63,0.00,,,0.11,Wunderground v.1.15,2013-07-25 01:45:00,
2013-07-24 19:50:00,65.0,51.7,29.77,East,84,1.0,1.0,62,0.00,,,0.11,Wunderground v.1.15,2013-07-25 01:50:00,
2013-07-24 19:51:00,64.9,52.0,29.77,East,84,1.0,1.0,63,0.00,,,0.11,Wunderground v.1.15,2013-07-25 01:51:00,
2013-07-24 19:53:00,64.9,51.6,29.77,East,94,1.0,1.0,62,0.00,,,0.11,Wunderground v.1.15,2013-07-25 01:53:00,
2013-07-24 19:55:00,64.9,51.1,29.77,East,89,0.0,1.0,61,0.00,,,0.11,Wunderground v.1.15,2013-07-25 01:55:00,
2013-07-24 19:57:00,65.0,51.7,29.77,East,89,0.0,1.0,62,0.00,,,0.11,Wunderground v.1.15,2013-07-25 01:57:00,
2013-07-24 19:58:00,65.0,51.2,29.77,East,87,0.0,1.0,61,0.00,,,0.11,Wunderground v.1.15,2013-07-25 01:58:00,
2013-07-24 19:59:00,65.0,51.7,29.77,ESE,105,1.0,1.0,62,0.00,,,0.11,Wunderground v.1.15,2013-07-25 01:59:00,
2013-07-24 20:00:00,65.0,50.8,29.77,ESE,103,1.0,1.0,60,0.00,,,0.11,Wunderground v.1.15,2013-07-25 02:00:00,
2013-07-24 20:01:00,65.0,50.8,29.77,ENE,63,1.0,2.0,60,0.00,,,0.11,Wunderground v.1.15,2013-07-25 02:01:00,
2013-07-24 20:06:00,64.9,50.7,29.78,East,94,1.0,2.0,60,0.00,,,0.11,Wunderground v.1.15,2013-07-25 02:06:00,
2013-07-24 20:07:00,64.8,50.1,29.78,East,94,1.0,2.0,59,0.00,,,0.11,Wunderground v.1.15,2013-07-25 02:07:00,
2013-07-24 20:11:00,64.7,50.9,29.78,East,94,0.0,1.0,61,0.00,,,0.11,Wunderground v.1.15,2013-07-25 02:11:00,
2013-07-24 20:13:00,64.6,51.7,29.78,East,94,1.0,1.0,63,0.00,,,0.11,Wunderground v.1.15,2013-07-25 02:13:00,
2013-07-24 20:14:00,64.5,52.0,29.78,East,94,1.0,1.0,64,0.00,,,0.11,Wunderground v.1.15,2013-07-25 02:14:00,
2013-07-24 20:17:00,64.1,50.8,29.78,East,94,0.0,1.0,62,0.00,,,0.11,Wunderground v.1.15,2013-07-25 02:17:00,
2013-07-24 20:19:00,64.0,50.7,29.78,East,94,0.0,1.0,62,0.00,,,0.11,Wunderground v.1.15,2013-07-25 02:19:00,
2013-07-24 20:21:00,63.9,50.6,29.79,East,94,0.0,1.0,62,0.00,,,0.11,Wunderground v.1.15,2013-07-25 02:21:00,
2013-07-24 20:22:00,63.8,51.4,29.79,East,86,0.0,1.0,64,0.00,,,0.11,Wunderground v.1.15,2013-07-25 02:22:00,
2013-07-24 20:23:00,63.8,51.0,29.80,North,11,0.0,2.0,63,0.00,,,0.11,Wunderground v.1.15,2013-07-25 02:23:00,
2013-07-24 20:25:00,63.7,50.0,29.80,NNE,13,1.0,2.0,61,0.00,,,0.11,Wunderground v.1.15,2013-07-25 02:25:00,
2013-07-24 20:27:00,63.7,49.5,29.80,NW,312,1.0,3.0,60,0.00,,,0.11,Wunderground v.1.15,2013-07-25 02:27:00,
2013-07-24 20:28:00,63.7,50.4,29.81,NW,304,2.0,6.0,62,0.00,,,0.11,Wunderground v.1.15,2013-07-25 02:28:00,
2013-07-24 20:30:00,63.8,51.0,29.81,NW,319,3.0,4.0,63,0.00,,,0.11,Wunderground v.1.15,2013-07-25 02:30:00,
2013-07-24 20:33:00,63.7,50.9,29.81,NNE,22,3.0,4.0,63,0.00,,,0.11,Wunderground v.1.15,2013-07-25 02:33:00,
2013-07-24 20:35:00,63.7,48.6,29.81,NE,38,2.0,4.0,58,0.00,,,0.11,Wunderground v.1.15,2013-07-25 02:35:00,
2013-07-24 20:36:00,63.8,48.3,29.81,North,11,2.0,4.0,57,0.00,,,0.11,Wunderground v.1.15,2013-07-25 02:36:00,
2013-07-24 20:38:00,64.0,48.0,29.81,NE,38,2.0,4.0,56,0.00,,,0.11,Wunderground v.1.15,2013-07-25 02:38:00,
2013-07-24 20:39:00,64.1,48.5,29.82,ENE,77,2.0,4.0,57,0.00,,,0.11,Wunderground v.1.15,2013-07-25 02:39:00,
2013-07-24 20:41:00,64.3,46.8,29.82,ENE,78,1.0,2.0,53,0.00,,,0.11,Wunderground v.1.15,2013-07-25 02:41:00,
2013-07-24 20:42:00,64.4,45.9,29.82,ENE,63,1.0,2.0,51,0.00,,,0.11,Wunderground v.1.15,2013-07-25 02:42:00,
2013-07-24 20:46:00,65.0,45.9,29.83,East,84,3.0,6.0,50,0.00,,,0.11,Wunderground v.1.15,2013-07-25 02:46:00,
2013-07-24 20:47:00,65.1,46.0,29.83,ENE,68,3.0,6.0,50,0.00,,,0.11,Wunderground v.1.15,2013-07-25 02:47:00,
2013-07-24 20:49:00,65.3,46.2,29.83,NE,56,4.0,4.0,50,0.00,,,0.11,Wunderground v.1.15,2013-07-25 02:49:00,
2013-07-24 20:51:00,65.3,46.2,29.84,East,89,4.0,5.0,50,0.00,,,0.11,Wunderground v.1.15,2013-07-25 02:51:00,
2013-07-24 20:54:00,65.3,46.7,29.84,NE,53,5.0,7.0,51,0.00,,,0.11,Wunderground v.1.15,2013-07-25 02:54:00,
2013-07-24 20:56:00,65.3,46.7,29.84,ENE,67,5.0,7.0,51,0.00,,,0.11,Wunderground v.1.15,2013-07-25 02:56:00,
2013-07-24 20:59:00,65.3,46.2,29.84,NE,56,5.0,7.0,50,0.00,,,0.11,Wunderground v.1.15,2013-07-25 02:59:00,
2013-07-24 21:00:00,65.3,46.2,29.84,NE,36,5.0,5.0,50,0.00,,,0.11,Wunderground v.1.15,2013-07-25 03:00:00,
2013-07-24 21:02:00,65.4,46.3,29.85,ENE,64,5.0,5.0,50,0.00,,,0.11,Wunderground v.1.15,2013-07-25 03:02:00,
2013-07-24 21:04:00,65.4,46.3,29.85,East,84,4.0,5.0,50,0.00,,,0.11,Wunderground v.1.15,2013-07-25 03:04:00,
2013-07-24 21:05:00,65.4,46.3,29.85,East,86,4.0,5.0,50,0.00,,,0.11,Wunderground v.1.15,2013-07-25 03:05:00,
2013-07-24 21:11:00,65.2,48.1,29.86,ENE,70,5.0,6.0,54,0.00,,,0.11,Wunderground v.1.15,2013-07-25 03:11:00,
2013-07-24 21:12:00,65.1,48.5,29.86,ESE,109,5.0,7.0,55,0.00,,,0.11,Wunderground v.1.15,2013-07-25 03:12:00,
2013-07-24 21:13:00,65.0,48.4,29.86,ENE,72,6.0,7.0,55,0.00,,,0.11,Wunderground v.1.15,2013-07-25 03:13:00,
2013-07-24 21:16:00,64.7,49.1,29.87,NE,56,6.0,9.0,57,0.00,,,0.11,Wunderground v.1.15,2013-07-25 03:16:00,
2013-07-24 21:17:00,64.6,49.5,29.87,ENE,78,6.0,9.0,58,0.00,,,0.11,Wunderground v.1.15,2013-07-25 03:17:00,
2013-07-24 21:19:00,64.4,49.3,29.87,East,88,6.0,6.0,58,0.00,,,0.11,Wunderground v.1.15,2013-07-25 03:19:00,
2013-07-24 21:22:00,64.2,49.6,29.88,North,4,5.0,6.0,59,0.00,,,0.11,Wunderground v.1.15,2013-07-25 03:22:00,
2013-07-24 21:24:00,64.1,49.5,29.87,ENE,60,5.0,10.0,59,0.00,,,0.11,Wunderground v.1.15,2013-07-25 03:24:00,
2013-07-24 21:28:00,63.6,50.8,29.88,ENE,78,5.0,10.0,63,0.00,,,0.11,Wunderground v.1.15,2013-07-25 03:28:00,
2013-07-24 21:29:00,63.5,50.7,29.88,ENE,69,5.0,10.0,63,0.00,,,0.11,Wunderground v.1.15,2013-07-25 03:29:00,
2013-07-24 21:34:00,62.7,51.2,29.89,East,96,6.0,11.0,66,0.00,,,0.11,Wunderground v.1.15,2013-07-25 03:34:00,
2013-07-24 21:35:00,62.5,51.0,29.89,ENE,77,6.0,11.0,66,0.00,,,0.11,Wunderground v.1.15,2013-07-25 03:35:00,
2013-07-24 21:36:00,62.3,50.8,29.89,ENE,72,5.0,11.0,66,0.00,,,0.11,Wunderground v.1.15,2013-07-25 03:36:00,
2013-07-24 21:41:00,61.2,50.6,29.90,East,97,6.0,6.0,68,0.00,,,0.11,Wunderground v.1.15,2013-07-25 03:41:00,
2013-07-24 21:42:00,61.1,50.5,29.90,NE,53,6.0,9.0,68,0.00,,,0.11,Wunderground v.1.15,2013-07-25 03:42:00,
2013-07-24 21:43:00,60.7,50.1,29.90,East,79,6.0,9.0,68,0.00,,,0.11,Wunderground v.1.15,2013-07-25 03:43:00,
2013-07-24 21:46:00,60.3,50.1,29.90,ENE,65,6.0,9.0,69,0.00,,,0.11,Wunderground v.1.15,2013-07-25 03:46:00,
2013-07-24 21:48:00,60.3,50.1,29.90,East,82,6.0,9.0,69,0.00,,,0.11,Wunderground v.1.15,2013-07-25 03:48:00,
2013-07-24 21:49:00,60.2,50.0,29.90,East,84,6.0,9.0,69,0.00,,,0.11,Wunderground v.1.15,2013-07-25 03:49:00,
2013-07-24 21:51:00,60.0,50.2,29.90,ESE,112,5.0,7.0,70,0.00,,,0.11,Wunderground v.1.15,2013-07-25 03:51:00,
2013-07-24 21:55:00,59.7,49.9,29.90,ENE,78,4.0,7.0,70,0.00,,,0.11,Wunderground v.1.15,2013-07-25 03:55:00,
2013-07-24 21:56:00,59.6,49.8,29.90,East,86,4.0,7.0,70,0.00,,,0.11,Wunderground v.1.15,2013-07-25 03:56:00,
2013-07-24 21:57:00,59.5,50.1,29.91,East,86,4.0,7.0,71,0.00,,,0.11,Wunderground v.1.15,2013-07-25 03:57:00,
2013-07-24 22:00:00,59.3,49.9,29.91,SE,132,4.0,5.0,71,0.00,,,0.11,Wunderground v.1.15,2013-07-25 04:00:00,
2013-07-24 22:01:00,59.2,49.8,29.91,East,96,4.0,5.0,71,0.00,,,0.11,Wunderground v.1.15,2013-07-25 04:01:00,
2013-07-24 22:03:00,59.1,49.7,29.91,East,85,4.0,7.0,71,0.00,,,0.11,Wunderground v.1.15,2013-07-25 04:03:00,
2013-07-24 22:04:00,59.0,50.0,29.91,ESE,102,3.0,7.0,72,0.00,,,0.11,Wunderground v.1.15,2013-07-25 04:04:00,
2013-07-24 22:05:00,58.9,49.9,29.91,ENE,69,3.0,7.0,72,0.00,,,0.11,Wunderground v.1.15,2013-07-25 04:05:00,
2013-07-24 22:06:00,58.8,49.8,29.91,East,79,3.0,7.0,72,0.00,,,0.11,Wunderground v.1.15,2013-07-25 04:06:00,
2013-07-24 22:07:00,58.8,49.8,29.91,East,83,3.0,7.0,72,0.00,,,0.11,Wunderground v.1.15,2013-07-25 04:07:00,
2013-07-24 22:12:00,58.5,49.9,29.91,ESE,118,3.0,3.0,73,0.00,,,0.11,Wunderground v.1.15,2013-07-25 04:12:00,
2013-07-24 22:13:00,58.4,49.8,29.91,ESE,117,3.0,3.0,73,0.00,,,0.11,Wunderground v.1.15,2013-07-25 04:13:00,
2013-07-24 22:14:00,58.4,49.8,29.91,East,101,3.0,3.0,73,0.00,,,0.11,Wunderground v.1.15,2013-07-25 04:14:00,
2013-07-24 22:15:00,58.3,49.7,29.91,ESE,102,2.0,3.0,73,0.00,,,0.11,Wunderground v.1.15,2013-07-25 04:15:00,
2013-07-24 22:16:00,58.3,49.7,29.91,ESE,103,2.0,3.0,73,0.00,,,0.11,Wunderground v.1.15,2013-07-25 04:16:00,
2013-07-24 22:21:00,58.0,49.4,29.91,NE,49,1.0,2.0,73,0.00,,,0.11,Wunderground v.1.15,2013-07-25 04:21:00,
2013-07-24 22:22:00,58.0,49.4,29.91,NE,49,1.0,2.0,73,0.00,,,0.11,Wunderground v.1.15,2013-07-25 04:22:00,
2013-07-24 22:23:00,58.0,49.8,29.91,ENE,74,1.0,2.0,74,0.00,,,0.11,Wunderground v.1.15,2013-07-25 04:23:00,
2013-07-24 22:24:00,58.0,49.8,29.91,ENE,74,1.0,2.0,74,0.00,,,0.11,Wunderground v.1.15,2013-07-25 04:24:00,
2013-07-24 22:26:00,57.9,49.7,29.92,East,100,1.0,2.0,74,0.00,,,0.11,Wunderground v.1.15,2013-07-25 04:26:00,
2013-07-24 22:28:00,57.9,50.0,29.91,ESE,105,1.0,4.0,75,0.00,,,0.11,Wunderground v.1.15,2013-07-25 04:28:00,
2013-07-24 22:29:00,57.8,49.9,29.92,East,79,1.0,5.0,75,0.00,,,0.11,Wunderground v.1.15,2013-07-25 04:29:00,
2013-07-24 22:35:00,57.7,49.8,29.92,ENE,78,2.0,5.0,75,0.00,,,0.11,Wunderground v.1.15,2013-07-25 04:35:00,
2013-07-24 22:36:00,57.7,49.8,29.92,East,92,2.0,5.0,75,0.00,,,0.11,Wunderground v.1.15,2013-07-25 04:36:00,
2013-07-24 22:38:00,57.6,50.1,29.92,ESE,109,3.0,5.0,76,0.00,,,0.11,Wunderground v.1.15,2013-07-25 04:38:00,
2013-07-24 22:41:00,57.6,50.1,29.91,ENE,77,2.0,2.0,76,0.00,,,0.11,Wunderground v.1.15,2013-07-25 04:41:00,
2013-07-24 22:43:00,57.5,50.0,29.91,East,82,2.0,4.0,76,0.00,,,0.11,Wunderground v.1.15,2013-07-25 04:43:00,
2013-07-24 22:44:00,57.5,50.0,29.91,East,84,2.0,4.0,76,0.00,,,0.11,Wunderground v.1.15,2013-07-25 04:44:00,
2013-07-24 22:47:00,57.4,50.2,29.90,NE,41,2.0,4.0,77,0.00,,,0.11,Wunderground v.1.15,2013-07-25 04:47:00,
2013-07-24 22:48:00,57.4,50.2,29.90,ENE,75,2.0,4.0,77,0.00,,,0.11,Wunderground v.1.15,2013-07-25 04:48:00,
2013-07-24 22:50:00,57.3,50.1,29.90,East,100,2.0,2.0,77,0.00,,,0.11,Wunderground v.1.15,2013-07-25 04:50:00,
2013-07-24 22:53:00,57.1,50.3,29.91,ENE,77,1.0,2.0,78,0.00,,,0.11,Wunderground v.1.15,2013-07-25 04:53:00,
2013-07-24 22:54:00,57.0,50.2,29.91,ENE,76,1.0,2.0,78,0.00,,,0.11,Wunderground v.1.15,2013-07-25 04:54:00,
2013-07-24 22:57:00,56.9,50.1,29.91,East,92,1.0,2.0,78,0.00,,,0.11,Wunderground v.1.15,2013-07-25 04:57:00,
2013-07-24 22:59:00,56.9,50.5,29.91,East,90,1.0,2.0,79,0.00,,,0.11,Wunderground v.1.15,2013-07-25 04:59:00,
2013-07-24 23:00:00,56.8,50.4,29.91,East,91,1.0,1.0,79,0.00,,,0.11,Wunderground v.1.15,2013-07-25 05:00:00,
2013-07-24 23:02:00,56.7,50.3,29.91,ENE,59,1.0,1.0,79,0.00,,,0.11,Wunderground v.1.15,2013-07-25 05:02:00,
2013-07-24 23:05:00,56.6,50.2,29.91,ENE,61,1.0,1.0,79,0.00,,,0.11,Wunderground v.1.15,2013-07-25 05:05:00,
2013-07-24 23:07:00,56.6,50.5,29.92,ENE,64,0.0,1.0,80,0.00,,,0.11,Wunderground v.1.15,2013-07-25 05:07:00,
2013-07-24 23:08:00,56.6,50.5,29.92,East,88,0.0,1.0,80,0.00,,,0.11,Wunderground v.1.15,2013-07-25 05:08:00,
2013-07-24 23:09:00,56.6,50.5,29.92,East,95,0.0,1.0,80,0.00,,,0.11,Wunderground v.1.15,2013-07-25 05:09:00,
2013-07-24 23:11:00,56.7,50.6,29.91,East,91,1.0,3.0,80,0.00,,,0.11,Wunderground v.1.15,2013-07-25 05:11:00,
2013-07-24 23:14:00,56.7,50.6,29.91,ESE,103,1.0,4.0,80,0.00,,,0.11,Wunderground v.1.15,2013-07-25 05:14:00,
2013-07-24 23:16:00,56.7,50.6,29.91,ESE,105,2.0,4.0,80,0.00,,,0.11,Wunderground v.1.15,2013-07-25 05:16:00,
2013-07-24 23:19:00,56.6,50.5,29.91,East,89,2.0,4.0,80,0.00,,,0.11,Wunderground v.1.15,2013-07-25 05:19:00,
2013-07-24 23:20:00,56.6,50.5,29.91,East,94,2.0,2.0,80,0.00,,,0.11,Wunderground v.1.15,2013-07-25 05:20:00,
2013-07-24 23:22:00,56.6,50.5,29.91,ESE,108,2.0,4.0,80,0.00,,,0.11,Wunderground v.1.15,2013-07-25 05:22:00,
2013-07-24 23:26:00,56.4,50.6,29.92,SE,128,3.0,4.0,81,0.00,,,0.11,Wunderground v.1.15,2013-07-25 05:26:00,
2013-07-24 23:29:00,56.3,50.5,29.92,ESE,118,3.0,4.0,81,0.00,,,0.11,Wunderground v.1.15,2013-07-25 05:29:00,
2013-07-24 23:30:00,56.3,50.5,29.92,ENE,78,3.0,3.0,81,0.00,,,0.11,Wunderground v.1.15,2013-07-25 05:30:00,
2013-07-24 23:32:00,56.2,50.4,29.92,East,85,2.0,3.0,81,0.00,,,0.11,Wunderground v.1.15,2013-07-25 05:32:00,
2013-07-24 23:33:00,56.1,50.3,29.91,ENE,78,2.0,4.0,81,0.00,,,0.11,Wunderground v.1.15,2013-07-25 05:33:00,
2013-07-24 23:35:00,56.0,50.3,29.92,ESE,105,2.0,5.0,81,0.00,,,0.11,Wunderground v.1.15,2013-07-25 05:35:00,
2013-07-24 23:39:00,55.8,50.4,29.92,ENE,57,3.0,5.0,82,0.00,,,0.11,Wunderground v.1.15,2013-07-25 05:39:00,
2013-07-24 23:41:00,55.7,50.3,29.92,ESE,121,3.0,5.0,82,0.00,,,0.11,Wunderground v.1.15,2013-07-25 05:41:00,
2013-07-24 23:42:00,55.7,50.3,29.92,East,91,3.0,5.0,82,0.00,,,0.11,Wunderground v.1.15,2013-07-25 05:42:00,
2013-07-24 23:45:00,55.7,50.3,29.92,East,89,3.0,5.0,82,0.00,,,0.11,Wunderground v.1.15,2013-07-25 05:45:00,
2013-07-24 23:46:00,55.6,50.2,29.92,East,87,3.0,5.0,82,0.00,,,0.11,Wunderground v.1.15,2013-07-25 05:46:00,
2013-07-24 23:48:00,55.6,50.2,29.92,ENE,58,3.0,7.0,82,0.00,,,0.11,Wunderground v.1.15,2013-07-25 05:48:00,
2013-07-24 23:51:00,55.5,50.4,29.92,ENE,58,3.0,6.0,83,0.00,,,0.11,Wunderground v.1.15,2013-07-25 05:51:00,
2013-07-24 23:54:00,55.5,50.4,29.92,East,93,3.0,6.0,83,0.00,,,0.11,Wunderground v.1.15,2013-07-25 05:54:00,
2013-07-24 23:57:00,55.5,50.4,29.92,ENE,57,3.0,6.0,83,0.00,,,0.11,Wunderground v.1.15,2013-07-25 05:57:00,
2013-07-24 23:58:00,55.4,50.3,29.92,ENE,61,3.0,6.0,83,0.00,,,0.11,Wunderground v.1.15,2013-07-25 05:58:00,